Time,TemperatureF,DewpointF,PressureIn,WindDirection,WindDirectionDegrees,WindSpeedMPH,WindSpeedGustMPH,Humidity,HourlyPrecipIn,Conditions,Clouds,dailyrainin,SolarRadiationWatts/m^2,SoftwareType,DateUTC
2013-11-14 00:00:00,30.0,21.4,30.38,West,266,2.0,4.0,70,0.00,,,0.00,0,Wunderground v.1.15,2013-11-14 05:00:00,
2013-11-14 00:01:00,30.0,21.4,30.38,West,265,2.0,4.0,70,0.00,,,0.00,0,Wunderground v.1.15,2013-11-14 05:01:00,
2013-11-14 00:02:00,30.0,21.4,30.38,West,269,3.0,4.0,70,0.00,,,0.00,0,Wunderground v.1.15,2013-11-14 05:02:00,
2013-11-14 00:03:00,30.0,21.4,30.38,West,269,3.0,4.0,70,0.00,,,0.00,0,Wunderground v.1.15,2013-11-14 05:03:00,
2013-11-14 00:06:00,30.0,21.4,30.38,SSE,155,2.0,4.0,70,0.00,,,0.00,0,Wunderground v.1.15,2013-11-14 05:06:00,
2013-11-14 00:07:00,30.0,21.4,30.38,WNW,288,2.0,4.0,70,0.00,,,0.00,0,Wunderground v.1.15,2013-11-14 05:07:00,
2013-11-14 00:08:00,30.0,21.4,30.37,West,271,2.0,4.0,70,0.00,,,0.00,0,Wunderground v.1.15,2013-11-14 05:08:00,
2013-11-14 00:10:00,30.0,21.4,30.37,West,275,2.0,2.0,70,0.00,,,0.00,0,Wunderground v.1.15,2013-11-14 05:10:00,
2013-11-14 00:11:00,30.0,21.4,30.37,SW,233,2.0,2.0,70,0.00,,,0.00,0,Wunderground v.1.15,2013-11-14 05:11:00,
2013-11-14 00:12:00,30.0,21.4,30.37,WSW,250,2.0,5.0,70,0.00,,,0.00,0,Wunderground v.1.15,2013-11-14 05:12:00,
2013-11-14 00:15:00,30.1,21.5,30.37,WNW,283,2.0,5.0,70,0.00,,,0.00,0,Wunderground v.1.15,2013-11-14 05:15:00,
2013-11-14 00:17:00,30.0,21.4,30.37,West,265,2.0,5.0,70,0.00,,,0.00,0,Wunderground v.1.15,2013-11-14 05:17:00,
2013-11-14 00:18:00,30.1,21.5,30.37,WSW,245,2.0,5.0,70,0.00,,,0.00,0,Wunderground v.1.15,2013-11-14 05:18:00,
2013-11-14 00:20:00,30.1,21.5,30.37,WNW,287,2.0,3.0,70,0.00,,,0.00,0,Wunderground v.1.15,2013-11-14 05:20:00,
2013-11-14 00:21:00,30.1,21.5,30.37,SW,224,2.0,3.0,70,0.00,,,0.00,0,Wunderground v.1.15,2013-11-14 05:21:00,
2013-11-14 00:22:00,30.1,21.5,30.37,West,263,2.0,3.0,70,0.00,,,0.00,0,Wunderground v.1.15,2013-11-14 05:22:00,
2013-11-14 00:25:00,30.1,21.5,30.37,West,271,2.0,3.0,70,0.00,,,0.00,0,Wunderground v.1.15,2013-11-14 05:25:00,
2013-11-14 00:27:00,30.0,21.4,30.36,West,280,2.0,3.0,70,0.00,,,0.00,0,Wunderground v.1.15,2013-11-14 05:27:00,
2013-11-14 00:28:00,30.0,21.4,30.36,West,265,2.0,4.0,70,0.00,,,0.00,0,Wunderground v.1.15,2013-11-14 05:28:00,
2013-11-14 00:30:00,30.0,21.7,30.36,WNW,298,2.0,2.0,71,0.00,,,0.00,0,Wunderground v.1.15,2013-11-14 05:30:00,
2013-11-14 00:34:00,29.9,21.6,30.36,SE,136,2.0,4.0,71,0.00,,,0.00,0,Wunderground v.1.15,2013-11-14 05:34:00,
2013-11-14 00:35:00,29.9,21.6,30.36,West,275,2.0,4.0,71,0.00,,,0.00,0,Wunderground v.1.15,2013-11-14 05:35:00,
2013-11-14 00:36:00,29.9,21.6,30.36,West,270,2.0,4.0,71,0.00,,,0.00,0,Wunderground v.1.15,2013-11-14 05:36:00,
2013-11-14 00:40:00,29.8,21.5,30.36,WNW,290,2.0,2.0,71,0.00,,,0.00,0,Wunderground v.1.15,2013-11-14 05:40:00,
2013-11-14 00:41:00,29.8,21.5,30.36,WNW,290,2.0,2.0,71,0.00,,,0.00,0,Wunderground v.1.15,2013-11-14 05:41:00,
2013-11-14 00:45:00,29.7,21.4,30.36,WSW,242,2.0,4.0,71,0.00,,,0.00,0,Wunderground v.1.15,2013-11-14 05:45:00,
2013-11-14 00:46:00,29.8,21.5,30.36,West,263,2.0,4.0,71,0.00,,,0.00,0,Wunderground v.1.15,2013-11-14 05:46:00,
2013-11-14 00:47:00,29.7,21.4,30.36,WNW,283,2.0,4.0,71,0.00,,,0.00,0,Wunderground v.1.15,2013-11-14 05:47:00,
2013-11-14 00:49:00,29.7,21.4,30.36,West,273,2.0,4.0,71,0.00,,,0.00,0,Wunderground v.1.15,2013-11-14 05:49:00,
2013-11-14 00:50:00,29.7,21.4,30.36,West,261,2.0,2.0,71,0.00,,,0.00,0,Wunderground v.1.15,2013-11-14 05:50:00,
2013-11-14 00:52:00,29.7,21.4,30.35,SSE,166,2.0,2.0,71,0.00,,,0.00,0,Wunderground v.1.15,2013-11-14 05:52:00,
2013-11-14 00:53:00,29.7,21.4,30.35,West,276,2.0,2.0,71,0.00,,,0.00,0,Wunderground v.1.15,2013-11-14 05:53:00,
2013-11-14 00:55:00,29.7,21.4,30.35,West,269,1.0,2.0,71,0.00,,,0.00,0,Wunderground v.1.15,2013-11-14 05:55:00,
2013-11-14 00:56:00,29.7,21.4,30.35,WNW,282,1.0,3.0,71,0.00,,,0.00,0,Wunderground v.1.15,2013-11-14 05:56:00,
2013-11-14 00:59:00,29.8,21.2,30.35,WNW,302,2.0,4.0,70,0.00,,,0.00,0,Wunderground v.1.15,2013-11-14 05:59:00,
2013-11-14 01:00:00,29.8,21.5,30.35,WNW,286,2.0,2.0,71,0.00,,,0.00,0,Wunderground v.1.15,2013-11-14 06:00:00,
2013-11-14 01:03:00,29.8,21.2,30.35,SSW,209,2.0,3.0,70,0.00,,,0.00,0,Wunderground v.1.15,2013-11-14 06:03:00,
2013-11-14 01:06:00,29.8,21.2,30.35,SSE,155,2.0,3.0,70,0.00,,,0.00,0,Wunderground v.1.15,2013-11-14 06:06:00,
2013-11-14 01:07:00,29.8,21.2,30.35,SE,145,1.0,3.0,70,0.00,,,0.00,0,Wunderground v.1.15,2013-11-14 06:07:00,
2013-11-14 01:09:00,29.9,21.3,30.34,SE,132,1.0,5.0,70,0.00,,,0.00,0,Wunderground v.1.15,2013-11-14 06:09:00,
2013-11-14 01:12:00,29.9,21.3,30.34,SE,132,1.0,2.0,70,0.00,,,0.00,0,Wunderground v.1.15,2013-11-14 06:12:00,
2013-11-14 01:14:00,29.9,21.3,30.34,SE,141,1.0,2.0,70,0.00,,,0.00,0,Wunderground v.1.15,2013-11-14 06:14:00,
2013-11-14 01:15:00,29.9,21.3,30.34,SE,140,2.0,2.0,70,0.00,,,0.00,0,Wunderground v.1.15,2013-11-14 06:15:00,
2013-11-14 01:16:00,29.9,21.3,30.34,South,172,2.0,2.0,70,0.00,,,0.00,0,Wunderground v.1.15,2013-11-14 06:16:00,
2013-11-14 01:17:00,29.9,21.3,30.34,SSE,168,2.0,2.0,70,0.00,,,0.00,0,Wunderground v.1.15,2013-11-14 06:17:00,
2013-11-14 01:20:00,29.8,21.2,30.34,West,261,1.0,1.0,70,0.00,,,0.00,0,Wunderground v.1.15,2013-11-14 06:20:00,
2013-11-14 01:23:00,29.8,21.2,30.34,WNW,289,1.0,4.0,70,0.00,,,0.00,0,Wunderground v.1.15,2013-11-14 06:23:00,
2013-11-14 01:25:00,29.8,21.5,30.34,WNW,296,2.0,4.0,71,0.00,,,0.00,0,Wunderground v.1.15,2013-11-14 06:25:00,
2013-11-14 01:28:00,29.7,21.4,30.34,SSW,205,2.0,4.0,71,0.00,,,0.00,0,Wunderground v.1.15,2013-11-14 06:28:00,
2013-11-14 01:29:00,29.7,21.4,30.33,SE,131,2.0,5.0,71,0.00,,,0.00,0,Wunderground v.1.15,2013-11-14 06:29:00,
2013-11-14 01:30:00,29.7,21.4,30.34,South,184,2.0,2.0,71,0.00,,,0.00,0,Wunderground v.1.15,2013-11-14 06:30:00,
2013-11-14 01:31:00,29.7,21.1,30.34,SE,146,2.0,2.0,70,0.00,,,0.00,0,Wunderground v.1.15,2013-11-14 06:31:00,
2013-11-14 01:33:00,29.7,21.1,30.34,SE,135,2.0,4.0,70,0.00,,,0.00,0,Wunderground v.1.15,2013-11-14 06:33:00,
2013-11-14 01:36:00,29.7,21.4,30.34,SSW,198,2.0,4.0,71,0.00,,,0.00,0,Wunderground v.1.15,2013-11-14 06:36:00,
2013-11-14 01:38:00,29.7,21.4,30.34,SSE,168,2.0,4.0,71,0.00,,,0.00,0,Wunderground v.1.15,2013-11-14 06:38:00,
2013-11-14 01:40:00,29.7,21.1,30.34,SSE,148,2.0,2.0,70,0.00,,,0.00,0,Wunderground v.1.15,2013-11-14 06:40:00,
2013-11-14 01:43:00,29.7,21.4,30.34,West,277,2.0,4.0,71,0.00,,,0.00,0,Wunderground v.1.15,2013-11-14 06:43:00,
2013-11-14 01:45:00,29.7,21.1,30.34,West,269,2.0,4.0,70,0.00,,,0.00,0,Wunderground v.1.15,2013-11-14 06:45:00,
2013-11-14 01:46:00,29.7,21.1,30.33,West,270,2.0,4.0,70,0.00,,,0.00,0,Wunderground v.1.15,2013-11-14 06:46:00,
2013-11-14 01:47:00,29.7,21.1,30.34,West,272,2.0,4.0,70,0.00,,,0.00,0,Wunderground v.1.15,2013-11-14 06:47:00,
2013-11-14 01:49:00,29.7,21.1,30.33,WNW,285,2.0,4.0,70,0.00,,,0.00,0,Wunderground v.1.15,2013-11-14 06:49:00,
2013-11-14 01:50:00,29.8,21.2,30.34,SSW,211,2.0,2.0,70,0.00,,,0.00,0,Wunderground v.1.15,2013-11-14 06:50:00,
2013-11-14 01:53:00,29.8,21.2,30.33,ESE,117,2.0,5.0,70,0.00,,,0.00,0,Wunderground v.1.15,2013-11-14 06:53:00,
2013-11-14 01:55:00,29.8,21.2,30.34,West,260,2.0,5.0,70,0.00,,,0.00,0,Wunderground v.1.15,2013-11-14 06:55:00,
2013-11-14 01:57:00,29.9,21.3,30.34,West,261,2.0,5.0,70,0.00,,,0.00,0,Wunderground v.1.15,2013-11-14 06:57:00,
2013-11-14 01:59:00,29.9,21.3,30.34,SSE,148,2.0,5.0,70,0.00,,,0.00,0,Wunderground v.1.15,2013-11-14 06:59:00,
2013-11-14 02:00:00,29.9,21.3,30.34,SE,139,2.0,2.0,70,0.00,,,0.00,0,Wunderground v.1.15,2013-11-14 07:00:00,
2013-11-14 02:01:00,29.9,21.3,30.34,SE,140,2.0,2.0,70,0.00,,,0.00,0,Wunderground v.1.15,2013-11-14 07:01:00,
2013-11-14 02:02:00,29.9,21.3,30.34,SSW,195,2.0,2.0,70,0.00,,,0.00,0,Wunderground v.1.15,2013-11-14 07:02:00,
2013-11-14 02:04:00,30.0,21.4,30.34,SE,134,2.0,5.0,70,0.00,,,0.00,0,Wunderground v.1.15,2013-11-14 07:04:00,
2013-11-14 02:06:00,30.1,21.2,30.34,ESE,121,2.0,5.0,69,0.00,,,0.00,0,Wunderground v.1.15,2013-11-14 07:06:00,
2013-11-14 02:07:00,30.1,21.2,30.34,SSE,154,2.0,5.0,69,0.00,,,0.00,0,Wunderground v.1.15,2013-11-14 07:07:00,
2013-11-14 02:10:00,30.2,21.2,30.34,ENE,71,2.0,2.0,69,0.00,,,0.00,0,Wunderground v.1.15,2013-11-14 07:10:00,
2013-11-14 02:14:00,30.3,21.3,30.34,SE,134,3.0,4.0,69,0.00,,,0.00,0,Wunderground v.1.15,2013-11-14 07:14:00,
2013-11-14 02:18:00,30.3,21.3,30.34,South,171,2.0,5.0,69,0.00,,,0.00,0,Wunderground v.1.15,2013-11-14 07:18:00,
2013-11-14 02:20:00,30.3,21.3,30.34,West,279,3.0,3.0,69,0.00,,,0.00,0,Wunderground v.1.15,2013-11-14 07:20:00,
2013-11-14 02:21:00,30.3,21.3,30.34,West,270,3.0,3.0,69,0.00,,,0.00,0,Wunderground v.1.15,2013-11-14 07:21:00,
2013-11-14 02:22:00,30.3,21.3,30.34,SSE,163,3.0,3.0,69,0.00,,,0.00,0,Wunderground v.1.15,2013-11-14 07:22:00,
2013-11-14 02:23:00,30.2,21.2,30.34,SE,125,3.0,4.0,69,0.00,,,0.00,0,Wunderground v.1.15,2013-11-14 07:23:00,
2013-11-14 02:26:00,30.2,21.2,30.34,WNW,288,2.0,6.0,69,0.00,,,0.00,0,Wunderground v.1.15,2013-11-14 07:26:00,
2013-11-14 02:27:00,30.2,21.2,30.34,WSW,253,2.0,6.0,69,0.00,,,0.00,0,Wunderground v.1.15,2013-11-14 07:27:00,
2013-11-14 02:28:00,30.2,21.2,30.34,West,261,3.0,6.0,69,0.00,,,0.00,0,Wunderground v.1.15,2013-11-14 07:28:00,
2013-11-14 02:29:00,30.2,21.2,30.34,West,267,3.0,6.0,69,0.00,,,0.00,0,Wunderground v.1.15,2013-11-14 07:29:00,
2013-11-14 02:34:00,30.1,21.2,30.33,WNW,288,3.0,4.0,69,0.00,,,0.00,0,Wunderground v.1.15,2013-11-14 07:34:00,
2013-11-14 02:35:00,30.2,21.6,30.33,SE,140,2.0,4.0,70,0.00,,,0.00,0,Wunderground v.1.15,2013-11-14 07:35:00,
2013-11-14 02:36:00,30.1,21.2,30.33,West,269,3.0,4.0,69,0.00,,,0.00,0,Wunderground v.1.15,2013-11-14 07:36:00,
2013-11-14 02:38:00,30.1,21.5,30.33,West,268,2.0,5.0,70,0.00,,,0.00,0,Wunderground v.1.15,2013-11-14 07:38:00,
2013-11-14 02:40:00,30.1,21.5,30.33,NNE,15,3.0,3.0,70,0.00,,,0.00,0,Wunderground v.1.15,2013-11-14 07:40:00,
2013-11-14 02:41:00,30.1,21.5,30.33,WNW,295,3.0,3.0,70,0.00,,,0.00,0,Wunderground v.1.15,2013-11-14 07:41:00,
2013-11-14 02:42:00,30.1,21.5,30.33,NE,34,3.0,4.0,70,0.00,,,0.00,0,Wunderground v.1.15,2013-11-14 07:42:00,
2013-11-14 02:43:00,30.1,21.5,30.33,SE,140,2.0,5.0,70,0.00,,,0.00,0,Wunderground v.1.15,2013-11-14 07:43:00,
2013-11-14 02:44:00,30.1,21.5,30.33,NNE,16,3.0,5.0,70,0.00,,,0.00,0,Wunderground v.1.15,2013-11-14 07:44:00,
2013-11-14 02:45:00,30.1,21.5,30.33,ESE,115,3.0,5.0,70,0.00,,,0.00,0,Wunderground v.1.15,2013-11-14 07:45:00,
2013-11-14 02:48:00,30.1,21.5,30.33,West,263,3.0,5.0,70,0.00,,,0.00,0,Wunderground v.1.15,2013-11-14 07:48:00,
2013-11-14 02:49:00,30.1,21.2,30.33,West,271,3.0,5.0,69,0.00,,,0.00,0,Wunderground v.1.15,2013-11-14 07:49:00,
2013-11-14 02:50:00,30.1,21.2,30.33,SE,134,3.0,3.0,69,0.00,,,0.00,0,Wunderground v.1.15,2013-11-14 07:50:00,
2013-11-14 02:51:00,30.1,21.2,30.33,SSW,196,3.0,3.0,69,0.00,,,0.00,0,Wunderground v.1.15,2013-11-14 07:51:00,
2013-11-14 02:55:00,30.2,21.2,30.33,SE,146,3.0,6.0,69,0.00,,,0.00,0,Wunderground v.1.15,2013-11-14 07:55:00,
2013-11-14 02:56:00,30.2,21.2,30.33,NW,321,3.0,6.0,69,0.00,,,0.00,0,Wunderground v.1.15,2013-11-14 07:56:00,
2013-11-14 02:57:00,30.2,21.2,30.33,SE,134,3.0,6.0,69,0.00,,,0.00,0,Wunderground v.1.15,2013-11-14 07:57:00,
2013-11-14 02:59:00,30.2,21.2,30.33,East,95,3.0,6.0,69,0.00,,,0.00,0,Wunderground v.1.15,2013-11-14 07:59:00,
2013-11-14 03:00:00,30.2,21.2,30.33,SW,223,3.0,3.0,69,0.00,,,0.00,0,Wunderground v.1.15,2013-11-14 08:00:00,
2013-11-14 03:01:00,30.2,21.2,30.33,SE,128,3.0,5.0,69,0.00,,,0.00,0,Wunderground v.1.15,2013-11-14 08:01:00,
2013-11-14 03:03:00,30.2,21.2,30.33,WSW,238,3.0,7.0,69,0.00,,,0.00,0,Wunderground v.1.15,2013-11-14 08:03:00,
2013-11-14 03:04:00,30.2,21.2,30.33,WSW,242,3.0,7.0,69,0.00,,,0.00,0,Wunderground v.1.15,2013-11-14 08:04:00,
2013-11-14 03:07:00,30.2,21.2,30.33,SW,221,3.0,7.0,69,0.00,,,0.00,0,Wunderground v.1.15,2013-11-14 08:07:00,
2013-11-14 03:09:00,30.1,21.2,30.33,East,93,2.0,7.0,69,0.00,,,0.00,0,Wunderground v.1.15,2013-11-14 08:09:00,
2013-11-14 03:10:00,30.1,21.2,30.33,ENE,76,3.0,3.0,69,0.00,,,0.00,0,Wunderground v.1.15,2013-11-14 08:10:00,
2013-11-14 03:14:00,30.1,21.2,30.33,SE,138,3.0,5.0,69,0.00,,,0.00,0,Wunderground v.1.15,2013-11-14 08:14:00,
2013-11-14 03:15:00,30.1,21.2,30.33,ENE,61,3.0,5.0,69,0.00,,,0.00,0,Wunderground v.1.15,2013-11-14 08:15:00,
2013-11-14 03:17:00,30.1,21.2,30.33,SE,126,3.0,5.0,69,0.00,,,0.00,0,Wunderground v.1.15,2013-11-14 08:17:00,
2013-11-14 03:18:00,30.1,21.5,30.33,SE,146,3.0,5.0,70,0.00,,,0.00,0,Wunderground v.1.15,2013-11-14 08:18:00,
2013-11-14 03:21:00,30.1,21.5,30.33,ESE,119,3.0,5.0,70,0.00,,,0.00,0,Wunderground v.1.15,2013-11-14 08:21:00,
2013-11-14 03:23:00,30.1,21.2,30.33,SE,124,3.0,5.0,69,0.00,,,0.00,0,Wunderground v.1.15,2013-11-14 08:23:00,
2013-11-14 03:26:00,30.1,21.5,30.33,SSW,201,3.0,5.0,70,0.00,,,0.00,0,Wunderground v.1.15,2013-11-14 08:26:00,
2013-11-14 03:27:00,30.1,21.5,30.33,West,280,3.0,5.0,70,0.00,,,0.00,0,Wunderground v.1.15,2013-11-14 08:27:00,
2013-11-14 03:29:00,30.1,21.5,30.33,ESE,113,3.0,5.0,70,0.00,,,0.00,0,Wunderground v.1.15,2013-11-14 08:29:00,
2013-11-14 03:30:00,30.0,21.4,30.33,WNW,294,3.0,5.0,70,0.00,,,0.00,0,Wunderground v.1.15,2013-11-14 08:30:00,
2013-11-14 03:32:00,30.0,21.4,30.33,NW,304,3.0,5.0,70,0.00,,,0.00,0,Wunderground v.1.15,2013-11-14 08:32:00,
2013-11-14 03:33:00,30.0,21.4,30.33,ESE,107,2.0,5.0,70,0.00,,,0.00,0,Wunderground v.1.15,2013-11-14 08:33:00,
2013-11-14 03:34:00,30.0,21.4,30.33,South,183,2.0,5.0,70,0.00,,,0.00,0,Wunderground v.1.15,2013-11-14 08:34:00,
2013-11-14 03:36:00,30.0,21.4,30.34,WNW,282,2.0,5.0,70,0.00,,,0.00,0,Wunderground v.1.15,2013-11-14 08:36:00,
2013-11-14 03:38:00,30.0,21.4,30.34,ESE,114,2.0,5.0,70,0.00,,,0.00,0,Wunderground v.1.15,2013-11-14 08:38:00,
2013-11-14 03:39:00,30.0,21.4,30.34,East,79,2.0,5.0,70,0.00,,,0.00,0,Wunderground v.1.15,2013-11-14 08:39:00,
2013-11-14 03:40:00,30.0,21.4,30.34,ENE,62,2.0,2.0,70,0.00,,,0.00,0,Wunderground v.1.15,2013-11-14 08:40:00,
2013-11-14 03:42:00,29.9,21.3,30.34,West,267,2.0,4.0,70,0.00,,,0.00,0,Wunderground v.1.15,2013-11-14 08:42:00,
2013-11-14 03:44:00,29.9,21.3,30.34,SW,223,2.0,4.0,70,0.00,,,0.00,0,Wunderground v.1.15,2013-11-14 08:44:00,
2013-11-14 03:45:00,29.9,21.3,30.34,West,278,2.0,4.0,70,0.00,,,0.00,0,Wunderground v.1.15,2013-11-14 08:45:00,
2013-11-14 03:49:00,29.9,21.3,30.34,SSE,165,2.0,4.0,70,0.00,,,0.00,0,Wunderground v.1.15,2013-11-14 08:49:00,
2013-11-14 03:50:00,29.8,21.2,30.34,West,269,2.0,2.0,70,0.00,,,0.00,0,Wunderground v.1.15,2013-11-14 08:50:00,
2013-11-14 03:51:00,29.8,21.2,30.34,West,267,2.0,2.0,70,0.00,,,0.00,0,Wunderground v.1.15,2013-11-14 08:51:00,
2013-11-14 03:54:00,29.7,21.1,30.34,West,271,2.0,5.0,70,0.00,,,0.00,0,Wunderground v.1.15,2013-11-14 08:54:00,
2013-11-14 03:56:00,29.7,21.4,30.34,SSW,196,2.0,5.0,71,0.00,,,0.00,0,Wunderground v.1.15,2013-11-14 08:56:00,
2013-11-14 03:57:00,29.7,21.4,30.34,WSW,258,2.0,5.0,71,0.00,,,0.00,0,Wunderground v.1.15,2013-11-14 08:57:00,
2013-11-14 04:00:00,29.7,21.1,30.34,West,266,3.0,3.0,70,0.00,,,0.00,0,Wunderground v.1.15,2013-11-14 09:00:00,
2013-11-14 04:01:00,29.7,21.1,30.34,SE,139,3.0,3.0,70,0.00,,,0.00,0,Wunderground v.1.15,2013-11-14 09:01:00,
2013-11-14 04:06:00,29.6,21.0,30.33,West,280,3.0,4.0,70,0.00,,,0.00,0,Wunderground v.1.15,2013-11-14 09:06:00,
2013-11-14 04:07:00,29.6,21.0,30.33,WNW,283,3.0,4.0,70,0.00,,,0.00,0,Wunderground v.1.15,2013-11-14 09:07:00,
2013-11-14 04:08:00,29.6,21.0,30.33,WSW,251,3.0,4.0,70,0.00,,,0.00,0,Wunderground v.1.15,2013-11-14 09:08:00,
2013-11-14 04:09:00,29.6,21.0,30.33,SSE,166,2.0,4.0,70,0.00,,,0.00,0,Wunderground v.1.15,2013-11-14 09:09:00,
2013-11-14 04:11:00,29.5,21.3,30.33,WNW,288,2.0,2.0,71,0.00,,,0.00,0,Wunderground v.1.15,2013-11-14 09:11:00,
2013-11-14 04:12:00,29.5,21.3,30.33,WNW,288,2.0,2.0,71,0.00,,,0.00,0,Wunderground v.1.15,2013-11-14 09:12:00,
2013-11-14 04:13:00,29.5,21.3,30.34,WNW,297,2.0,2.0,71,0.00,,,0.00,0,Wunderground v.1.15,2013-11-14 09:13:00,
2013-11-14 04:15:00,29.4,21.2,30.33,WSW,248,2.0,2.0,71,0.00,,,0.00,0,Wunderground v.1.15,2013-11-14 09:15:00,
2013-11-14 04:18:00,29.4,21.2,30.33,WNW,282,2.0,2.0,71,0.00,,,0.00,0,Wunderground v.1.15,2013-11-14 09:18:00,
2013-11-14 04:19:00,29.4,21.2,30.33,West,272,2.0,2.0,71,0.00,,,0.00,0,Wunderground v.1.15,2013-11-14 09:19:00,
2013-11-14 04:20:00,29.4,21.2,30.34,West,271,2.0,2.0,71,0.00,,,0.00,0,Wunderground v.1.15,2013-11-14 09:20:00,
2013-11-14 04:22:00,29.3,21.1,30.33,West,281,2.0,5.0,71,0.00,,,0.00,0,Wunderground v.1.15,2013-11-14 09:22:00,
2013-11-14 04:23:00,29.3,21.1,30.33,West,267,2.0,5.0,71,0.00,,,0.00,0,Wunderground v.1.15,2013-11-14 09:23:00,
2013-11-14 04:25:00,29.3,21.1,30.34,West,273,3.0,5.0,71,0.00,,,0.00,0,Wunderground v.1.15,2013-11-14 09:25:00,
2013-11-14 04:26:00,29.3,21.1,30.34,NNW,328,2.0,5.0,71,0.00,,,0.00,0,Wunderground v.1.15,2013-11-14 09:26:00,
2013-11-14 04:28:00,29.3,21.1,30.34,WNW,299,2.0,5.0,71,0.00,,,0.00,0,Wunderground v.1.15,2013-11-14 09:28:00,
2013-11-14 04:32:00,29.2,21.0,30.34,WNW,283,2.0,4.0,71,0.00,,,0.00,0,Wunderground v.1.15,2013-11-14 09:32:00,
2013-11-14 04:33:00,29.2,21.0,30.34,West,260,2.0,4.0,71,0.00,,,0.00,0,Wunderground v.1.15,2013-11-14 09:33:00,
2013-11-14 04:35:00,29.2,21.0,30.34,West,270,2.0,4.0,71,0.00,,,0.00,0,Wunderground v.1.15,2013-11-14 09:35:00,
2013-11-14 04:36:00,29.2,21.0,30.34,West,280,2.0,4.0,71,0.00,,,0.00,0,Wunderground v.1.15,2013-11-14 09:36:00,
2013-11-14 04:38:00,29.2,21.0,30.34,West,277,2.0,4.0,71,0.00,,,0.00,0,Wunderground v.1.15,2013-11-14 09:38:00,
2013-11-14 04:39:00,29.2,21.0,30.34,WNW,282,2.0,4.0,71,0.00,,,0.00,0,Wunderground v.1.15,2013-11-14 09:39:00,
2013-11-14 04:40:00,29.2,21.0,30.34,NNW,329,2.0,2.0,71,0.00,,,0.00,0,Wunderground v.1.15,2013-11-14 09:40:00,
2013-11-14 04:43:00,29.2,21.0,30.34,West,273,2.0,2.0,71,0.00,,,0.00,0,Wunderground v.1.15,2013-11-14 09:43:00,
2013-11-14 04:45:00,29.2,21.0,30.34,WNW,298,2.0,4.0,71,0.00,,,0.00,0,Wunderground v.1.15,2013-11-14 09:45:00,
2013-11-14 04:46:00,29.2,21.0,30.34,West,269,2.0,4.0,71,0.00,,,0.00,0,Wunderground v.1.15,2013-11-14 09:46:00,
2013-11-14 04:47:00,29.1,20.9,30.34,West,269,2.0,4.0,71,0.00,,,0.00,0,Wunderground v.1.15,2013-11-14 09:47:00,
2013-11-14 04:50:00,29.2,21.0,30.34,WSW,246,3.0,3.0,71,0.00,,,0.00,0,Wunderground v.1.15,2013-11-14 09:50:00,
2013-11-14 04:51:00,29.2,21.0,30.34,NNE,24,3.0,3.0,71,0.00,,,0.00,0,Wunderground v.1.15,2013-11-14 09:51:00,
2013-11-14 04:52:00,29.2,21.0,30.34,NNE,25,3.0,3.0,71,0.00,,,0.00,0,Wunderground v.1.15,2013-11-14 09:52:00,
2013-11-14 04:54:00,29.2,21.0,30.34,SSW,207,3.0,3.0,71,0.00,,,0.00,0,Wunderground v.1.15,2013-11-14 09:54:00,
2013-11-14 04:55:00,29.2,21.0,30.34,NW,309,2.0,3.0,71,0.00,,,0.00,0,Wunderground v.1.15,2013-11-14 09:55:00,
2013-11-14 04:57:00,29.2,21.0,30.34,West,269,2.0,4.0,71,0.00,,,0.00,0,Wunderground v.1.15,2013-11-14 09:57:00,
2013-11-14 04:58:00,29.2,20.6,30.34,WSW,250,2.0,5.0,70,0.00,,,0.00,0,Wunderground v.1.15,2013-11-14 09:58:00,
2013-11-14 04:59:00,29.2,21.0,30.34,West,268,2.0,5.0,71,0.00,,,0.00,0,Wunderground v.1.15,2013-11-14 09:59:00,
2013-11-14 05:01:00,29.2,20.6,30.34,WNW,288,2.0,4.0,70,0.00,,,0.00,0,Wunderground v.1.15,2013-11-14 10:01:00,
2013-11-14 05:04:00,29.3,20.7,30.34,West,265,3.0,4.0,70,0.00,,,0.00,0,Wunderground v.1.15,2013-11-14 10:04:00,
2013-11-14 05:05:00,29.3,20.7,30.34,West,269,3.0,4.0,70,0.00,,,0.00,0,Wunderground v.1.15,2013-11-14 10:05:00,
2013-11-14 05:10:00,29.4,20.8,30.34,West,277,3.0,3.0,70,0.00,,,0.00,0,Wunderground v.1.15,2013-11-14 10:10:00,
2013-11-14 05:11:00,29.4,20.8,30.34,West,277,3.0,3.0,70,0.00,,,0.00,0,Wunderground v.1.15,2013-11-14 10:11:00,
2013-11-14 05:12:00,29.4,20.8,30.34,West,275,3.0,3.0,70,0.00,,,0.00,0,Wunderground v.1.15,2013-11-14 10:12:00,
2013-11-14 05:13:00,29.5,20.9,30.34,West,269,2.0,3.0,70,0.00,,,0.00,0,Wunderground v.1.15,2013-11-14 10:13:00,
2013-11-14 05:16:00,29.5,20.6,30.34,WNW,289,2.0,5.0,69,0.00,,,0.00,0,Wunderground v.1.15,2013-11-14 10:16:00,
2013-11-14 05:18:00,29.5,20.6,30.34,West,275,2.0,5.0,69,0.00,,,0.00,0,Wunderground v.1.15,2013-11-14 10:18:00,
2013-11-14 05:20:00,29.5,20.6,30.34,SSE,156,2.0,2.0,69,0.00,,,0.00,0,Wunderground v.1.15,2013-11-14 10:20:00,
2013-11-14 05:23:00,29.5,20.6,30.34,SW,221,2.0,4.0,69,0.00,,,0.00,0,Wunderground v.1.15,2013-11-14 10:23:00,
2013-11-14 05:24:00,29.4,20.8,30.34,West,261,2.0,4.0,70,0.00,,,0.00,0,Wunderground v.1.15,2013-11-14 10:24:00,
2013-11-14 05:25:00,29.4,20.5,30.34,WSW,253,2.0,4.0,69,0.00,,,0.00,0,Wunderground v.1.15,2013-11-14 10:25:00,
2013-11-14 05:26:00,29.4,20.5,30.34,West,272,2.0,4.0,69,0.00,,,0.00,0,Wunderground v.1.15,2013-11-14 10:26:00,
2013-11-14 05:28:00,29.4,20.8,30.34,WNW,296,2.0,4.0,70,0.00,,,0.00,0,Wunderground v.1.15,2013-11-14 10:28:00,
2013-11-14 05:30:00,29.4,20.8,30.34,West,265,2.0,2.0,70,0.00,,,0.00,0,Wunderground v.1.15,2013-11-14 10:30:00,
2013-11-14 05:31:00,29.4,20.8,30.34,West,269,2.0,4.0,70,0.00,,,0.00,0,Wunderground v.1.15,2013-11-14 10:31:00,
2013-11-14 05:32:00,29.4,20.8,30.33,WSW,254,2.0,4.0,70,0.00,,,0.00,0,Wunderground v.1.15,2013-11-14 10:32:00,
2013-11-14 05:34:00,29.4,20.8,30.34,West,271,2.0,4.0,70,0.00,,,0.00,0,Wunderground v.1.15,2013-11-14 10:34:00,
2013-11-14 05:35:00,29.4,20.5,30.34,West,272,2.0,4.0,69,0.00,,,0.00,0,Wunderground v.1.15,2013-11-14 10:35:00,
2013-11-14 05:38:00,29.5,20.6,30.34,West,281,3.0,4.0,69,0.00,,,0.00,0,Wunderground v.1.15,2013-11-14 10:38:00,
2013-11-14 05:40:00,29.5,20.6,30.34,West,281,3.0,3.0,69,0.00,,,0.00,0,Wunderground v.1.15,2013-11-14 10:40:00,
2013-11-14 05:42:00,29.5,20.6,30.33,West,278,3.0,5.0,69,0.00,,,0.00,0,Wunderground v.1.15,2013-11-14 10:42:00,
2013-11-14 05:44:00,29.5,20.6,30.33,West,279,3.0,5.0,69,0.00,,,0.00,0,Wunderground v.1.15,2013-11-14 10:44:00,
2013-11-14 05:45:00,29.5,20.6,30.33,West,279,3.0,5.0,69,0.00,,,0.00,0,Wunderground v.1.15,2013-11-14 10:45:00,
2013-11-14 05:48:00,29.5,20.6,30.33,WSW,250,3.0,6.0,69,0.00,,,0.00,0,Wunderground v.1.15,2013-11-14 10:48:00,
2013-11-14 05:49:00,29.5,20.6,30.33,West,262,3.0,6.0,69,0.00,,,0.00,0,Wunderground v.1.15,2013-11-14 10:49:00,
2013-11-14 05:51:00,29.5,20.6,30.33,WSW,239,3.0,3.0,69,0.00,,,0.00,0,Wunderground v.1.15,2013-11-14 10:51:00,
2013-11-14 05:54:00,29.5,20.6,30.33,WNW,286,3.0,3.0,69,0.00,,,0.00,0,Wunderground v.1.15,2013-11-14 10:54:00,
2013-11-14 05:55:00,29.4,20.5,30.33,WNW,286,3.0,3.0,69,0.00,,,0.00,0,Wunderground v.1.15,2013-11-14 10:55:00,
2013-11-14 05:56:00,29.4,20.5,30.33,West,271,3.0,4.0,69,0.00,,,0.00,0,Wunderground v.1.15,2013-11-14 10:56:00,
2013-11-14 06:00:00,29.4,20.5,30.33,West,279,2.0,3.0,69,0.00,,,0.00,0,Wunderground v.1.15,2013-11-14 11:00:00,
2013-11-14 06:01:00,29.4,20.5,30.33,West,269,2.0,4.0,69,0.00,,,0.00,0,Wunderground v.1.15,2013-11-14 11:01:00,
2013-11-14 06:02:00,29.4,20.5,30.33,WNW,284,2.0,4.0,69,0.00,,,0.00,0,Wunderground v.1.15,2013-11-14 11:02:00,
2013-11-14 06:03:00,29.3,20.7,30.33,SSE,150,2.0,4.0,70,0.00,,,0.00,0,Wunderground v.1.15,2013-11-14 11:03:00,
2013-11-14 06:06:00,29.3,20.7,30.33,West,264,2.0,4.0,70,0.00,,,0.00,0,Wunderground v.1.15,2013-11-14 11:06:00,
2013-11-14 06:07:00,29.3,20.7,30.33,West,269,2.0,4.0,70,0.00,,,0.00,0,Wunderground v.1.15,2013-11-14 11:07:00,
2013-11-14 06:08:00,29.3,20.7,30.33,West,259,2.0,4.0,70,0.00,,,0.00,0,Wunderground v.1.15,2013-11-14 11:08:00,
2013-11-14 06:09:00,29.3,20.7,30.33,West,269,2.0,4.0,70,0.00,,,0.00,0,Wunderground v.1.15,2013-11-14 11:09:00,
2013-11-14 06:12:00,29.4,20.8,30.33,WNW,287,3.0,3.0,70,0.00,,,0.00,0,Wunderground v.1.15,2013-11-14 11:12:00,
2013-11-14 06:13:00,29.4,20.8,30.33,West,263,3.0,5.0,70,0.00,,,0.00,0,Wunderground v.1.15,2013-11-14 11:13:00,
2013-11-14 06:14:00,29.4,20.8,30.33,West,269,3.0,5.0,70,0.00,,,0.00,0,Wunderground v.1.15,2013-11-14 11:14:00,
2013-11-14 06:15:00,29.4,20.8,30.33,West,266,3.0,5.0,70,0.00,,,0.00,0,Wunderground v.1.15,2013-11-14 11:15:00,
2013-11-14 06:16:00,29.4,20.8,30.33,West,263,3.0,5.0,70,0.00,,,0.00,0,Wunderground v.1.15,2013-11-14 11:16:00,
2013-11-14 06:20:00,29.4,20.8,30.33,West,267,3.0,3.0,70,0.00,,,0.00,0,Wunderground v.1.15,2013-11-14 11:20:00,
2013-11-14 06:21:00,29.4,20.8,30.33,WSW,246,3.0,3.0,70,0.00,,,0.00,0,Wunderground v.1.15,2013-11-14 11:21:00,
2013-11-14 06:22:00,29.3,20.7,30.33,West,259,3.0,3.0,70,0.00,,,0.00,0,Wunderground v.1.15,2013-11-14 11:22:00,
2013-11-14 06:23:00,29.3,20.7,30.33,West,265,3.0,3.0,70,0.00,,,0.00,0,Wunderground v.1.15,2013-11-14 11:23:00,
2013-11-14 06:25:00,29.3,20.7,30.33,WSW,249,2.0,3.0,70,0.00,,,0.00,0,Wunderground v.1.15,2013-11-14 11:25:00,
2013-11-14 06:26:00,29.3,20.7,30.33,WSW,250,2.0,3.0,70,0.00,,,0.00,0,Wunderground v.1.15,2013-11-14 11:26:00,
2013-11-14 06:28:00,29.2,20.6,30.33,West,268,2.0,3.0,70,0.00,,,0.00,0,Wunderground v.1.15,2013-11-14 11:28:00,
2013-11-14 06:29:00,29.2,20.6,30.33,West,272,2.0,3.0,70,0.00,,,0.00,0,Wunderground v.1.15,2013-11-14 11:29:00,
2013-11-14 06:31:00,29.2,20.6,30.33,WSW,255,2.0,4.0,70,0.00,,,0.00,0,Wunderground v.1.15,2013-11-14 11:31:00,
2013-11-14 06:32:00,29.1,20.5,30.33,WNW,286,2.0,4.0,70,0.00,,,0.00,0,Wunderground v.1.15,2013-11-14 11:32:00,
2013-11-14 06:34:00,29.0,20.8,30.34,WNW,288,3.0,4.0,71,0.00,,,0.00,0,Wunderground v.1.15,2013-11-14 11:34:00,
2013-11-14 06:35:00,29.0,20.8,30.33,SW,234,2.0,4.0,71,0.00,,,0.00,0,Wunderground v.1.15,2013-11-14 11:35:00,
2013-11-14 06:36:00,29.0,20.8,30.33,West,277,2.0,4.0,71,0.00,,,0.00,0,Wunderground v.1.15,2013-11-14 11:36:00,
2013-11-14 06:38:00,28.9,20.7,30.34,West,270,3.0,4.0,71,0.00,,,0.00,0,Wunderground v.1.15,2013-11-14 11:38:00,
2013-11-14 06:41:00,28.7,20.8,30.34,West,281,2.0,2.0,72,0.00,,,0.00,0,Wunderground v.1.15,2013-11-14 11:41:00,
2013-11-14 06:42:00,28.7,20.8,30.34,West,273,2.0,2.0,72,0.00,,,0.00,0,Wunderground v.1.15,2013-11-14 11:42:00,
2013-11-14 06:43:00,28.6,20.7,30.34,West,275,2.0,2.0,72,0.00,,,0.00,0,Wunderground v.1.15,2013-11-14 11:43:00,
2013-11-14 06:45:00,28.5,20.6,30.34,WSW,244,2.0,4.0,72,0.00,,,0.00,0,Wunderground v.1.15,2013-11-14 11:45:00,
2013-11-14 06:47:00,28.4,20.5,30.34,ESE,103,2.0,4.0,72,0.00,,,0.00,0,Wunderground v.1.15,2013-11-14 11:47:00,
2013-11-14 06:48:00,28.3,20.4,30.33,WSW,246,2.0,4.0,72,0.00,,,0.00,0,Wunderground v.1.15,2013-11-14 11:48:00,
2013-11-14 06:52:00,28.2,20.7,30.33,WNW,285,2.0,2.0,73,0.00,,,0.00,0,Wunderground v.1.15,2013-11-14 11:52:00,
2013-11-14 06:53:00,28.1,20.6,30.34,SW,215,2.0,2.0,73,0.00,,,0.00,5,Wunderground v.1.15,2013-11-14 11:53:00,
2013-11-14 06:54:00,28.1,20.6,30.33,West,281,2.0,2.0,73,0.00,,,0.00,5,Wunderground v.1.15,2013-11-14 11:54:00,
2013-11-14 06:55:00,28.1,20.6,30.34,West,266,2.0,3.0,73,0.00,,,0.00,5,Wunderground v.1.15,2013-11-14 11:55:00,
2013-11-14 06:58:00,28.0,20.5,30.34,West,270,2.0,4.0,73,0.00,,,0.00,7,Wunderground v.1.15,2013-11-14 11:58:00,
2013-11-14 07:00:00,28.0,20.5,30.34,West,265,2.0,2.0,73,0.00,,,0.00,7,Wunderground v.1.15,2013-11-14 12:00:00,
2013-11-14 07:02:00,28.0,20.5,30.34,WSW,256,3.0,4.0,73,0.00,,,0.00,7,Wunderground v.1.15,2013-11-14 12:02:00,
2013-11-14 07:04:00,28.0,20.5,30.34,West,279,3.0,4.0,73,0.00,,,0.00,9,Wunderground v.1.15,2013-11-14 12:04:00,
2013-11-14 07:05:00,27.9,20.4,30.34,West,272,3.0,4.0,73,0.00,,,0.00,9,Wunderground v.1.15,2013-11-14 12:05:00,
2013-11-14 07:07:00,27.9,20.4,30.34,SSW,206,3.0,4.0,73,0.00,,,0.00,11,Wunderground v.1.15,2013-11-14 12:07:00,
2013-11-14 07:10:00,28.0,20.5,30.34,NNW,333,2.0,3.0,73,0.00,,,0.00,12,Wunderground v.1.15,2013-11-14 12:10:00,
2013-11-14 07:11:00,28.0,20.5,30.34,SE,134,2.0,3.0,73,0.00,,,0.00,12,Wunderground v.1.15,2013-11-14 12:11:00,
2013-11-14 07:12:00,28.0,20.5,30.34,WSW,247,2.0,3.0,73,0.00,,,0.00,12,Wunderground v.1.15,2013-11-14 12:12:00,
2013-11-14 07:13:00,28.0,20.5,30.34,West,261,2.0,3.0,73,0.00,,,0.00,12,Wunderground v.1.15,2013-11-14 12:13:00,
2013-11-14 07:15:00,28.1,20.6,30.34,SE,135,2.0,5.0,73,0.00,,,0.00,14,Wunderground v.1.15,2013-11-14 12:15:00,
2013-11-14 07:16:00,28.2,20.7,30.34,SE,125,2.0,6.0,73,0.00,,,0.00,14,Wunderground v.1.15,2013-11-14 12:16:00,
2013-11-14 07:17:00,28.3,20.7,30.34,SE,144,3.0,6.0,73,0.00,,,0.00,14,Wunderground v.1.15,2013-11-14 12:17:00,
2013-11-14 07:18:00,28.4,20.5,30.34,South,182,3.0,6.0,72,0.00,,,0.00,14,Wunderground v.1.15,2013-11-14 12:18:00,
2013-11-14 07:21:00,28.7,20.8,30.34,SE,128,4.0,5.0,72,0.00,,,0.00,16,Wunderground v.1.15,2013-11-14 12:21:00,
2013-11-14 07:22:00,28.7,20.8,30.34,ESE,122,4.0,5.0,72,0.00,,,0.00,16,Wunderground v.1.15,2013-11-14 12:22:00,
2013-11-14 07:26:00,28.9,20.7,30.34,SE,137,4.0,7.0,71,0.00,,,0.00,18,Wunderground v.1.15,2013-11-14 12:26:00,
2013-11-14 07:28:00,28.9,20.7,30.34,SE,127,3.0,7.0,71,0.00,,,0.00,19,Wunderground v.1.15,2013-11-14 12:28:00,
2013-11-14 07:30:00,29.0,20.8,30.34,South,175,4.0,4.0,71,0.00,,,0.00,19,Wunderground v.1.15,2013-11-14 12:30:00,
2013-11-14 07:33:00,29.0,20.8,30.35,SE,133,3.0,5.0,71,0.00,,,0.00,21,Wunderground v.1.15,2013-11-14 12:33:00,
2013-11-14 07:34:00,29.0,20.8,30.35,SE,132,3.0,5.0,71,0.00,,,0.00,21,Wunderground v.1.15,2013-11-14 12:34:00,
2013-11-14 07:36:00,29.0,20.8,30.35,ESE,115,3.0,6.0,71,0.00,,,0.00,21,Wunderground v.1.15,2013-11-14 12:36:00,
2013-11-14 07:38:00,29.0,20.8,30.35,WNW,286,3.0,6.0,71,0.00,,,0.00,21,Wunderground v.1.15,2013-11-14 12:38:00,
2013-11-14 07:39:00,29.0,20.8,30.35,WNW,284,3.0,6.0,71,0.00,,,0.00,23,Wunderground v.1.15,2013-11-14 12:39:00,
2013-11-14 07:42:00,29.0,20.8,30.35,SE,135,2.0,4.0,71,0.00,,,0.00,25,Wunderground v.1.15,2013-11-14 12:42:00,
2013-11-14 07:43:00,29.0,20.8,30.35,SSE,158,2.0,4.0,71,0.00,,,0.00,26,Wunderground v.1.15,2013-11-14 12:43:00,
2013-11-14 07:44:00,29.0,20.8,30.35,ESE,122,2.0,4.0,71,0.00,,,0.00,26,Wunderground v.1.15,2013-11-14 12:44:00,
2013-11-14 07:46:00,29.0,20.8,30.35,SE,134,2.0,4.0,71,0.00,,,0.00,30,Wunderground v.1.15,2013-11-14 12:46:00,
2013-11-14 07:47:00,29.0,20.8,30.35,West,275,2.0,4.0,71,0.00,,,0.00,33,Wunderground v.1.15,2013-11-14 12:47:00,
2013-11-14 07:48:00,29.1,20.9,30.35,SSE,162,2.0,4.0,71,0.00,,,0.00,37,Wunderground v.1.15,2013-11-14 12:48:00,
2013-11-14 07:52:00,29.3,21.1,30.35,SSW,193,2.0,2.0,71,0.00,,,0.00,33,Wunderground v.1.15,2013-11-14 12:52:00,
2013-11-14 07:53:00,29.4,21.2,30.35,SSW,204,2.0,2.0,71,0.00,,,0.00,32,Wunderground v.1.15,2013-11-14 12:53:00,
2013-11-14 07:54:00,29.4,20.8,30.35,SE,132,2.0,2.0,70,0.00,,,0.00,30,Wunderground v.1.15,2013-11-14 12:54:00,
2013-11-14 07:59:00,29.7,21.1,30.35,South,186,3.0,5.0,70,0.00,,,0.00,28,Wunderground v.1.15,2013-11-14 12:59:00,
2013-11-14 08:00:00,29.8,21.2,30.35,SE,140,3.0,3.0,70,0.00,,,0.00,28,Wunderground v.1.15,2013-11-14 13:00:00,
2013-11-14 08:01:00,29.9,21.3,30.35,SE,130,3.0,3.0,70,0.00,,,0.00,28,Wunderground v.1.15,2013-11-14 13:01:00,
2013-11-14 08:05:00,30.1,21.5,30.35,SE,145,3.0,6.0,70,0.00,,,0.00,30,Wunderground v.1.15,2013-11-14 13:05:00,
2013-11-14 08:06:00,30.1,21.5,30.35,SE,124,3.0,6.0,70,0.00,,,0.00,30,Wunderground v.1.15,2013-11-14 13:06:00,
2013-11-14 08:07:00,30.2,21.6,30.35,ESE,119,3.0,6.0,70,0.00,,,0.00,32,Wunderground v.1.15,2013-11-14 13:07:00,
2013-11-14 08:08:00,30.2,21.6,30.35,ESE,119,3.0,6.0,70,0.00,,,0.00,33,Wunderground v.1.15,2013-11-14 13:08:00,
2013-11-14 08:09:00,30.3,21.7,30.35,SE,138,3.0,6.0,70,0.00,,,0.00,33,Wunderground v.1.15,2013-11-14 13:09:00,
2013-11-14 08:13:00,30.7,21.7,30.35,SE,126,3.0,5.0,69,0.00,,,0.00,158,Wunderground v.1.15,2013-11-14 13:13:00,
2013-11-14 08:15:00,31.0,22.0,30.35,SSE,152,3.0,5.0,69,0.00,,,0.00,165,Wunderground v.1.15,2013-11-14 13:15:00,
2013-11-14 08:18:00,31.4,22.1,30.35,ESE,117,3.0,6.0,68,0.00,,,0.00,172,Wunderground v.1.15,2013-11-14 13:18:00,
2013-11-14 08:19:00,31.5,21.8,30.35,West,277,3.0,6.0,67,0.00,,,0.00,179,Wunderground v.1.15,2013-11-14 13:19:00,
2013-11-14 08:20:00,31.7,22.0,30.35,SSE,163,3.0,3.0,67,0.00,,,0.00,181,Wunderground v.1.15,2013-11-14 13:20:00,
2013-11-14 08:22:00,32.0,21.9,30.36,SE,136,3.0,3.0,66,0.00,,,0.00,183,Wunderground v.1.15,2013-11-14 13:22:00,
2013-11-14 08:24:00,32.2,21.7,30.36,ESE,115,3.0,3.0,65,0.00,,,0.00,188,Wunderground v.1.15,2013-11-14 13:24:00,
2013-11-14 08:25:00,32.3,21.8,30.36,SE,144,3.0,5.0,65,0.00,,,0.00,195,Wunderground v.1.15,2013-11-14 13:25:00,
2013-11-14 08:28:00,32.6,21.8,30.36,SW,232,4.0,6.0,64,0.00,,,0.00,202,Wunderground v.1.15,2013-11-14 13:28:00,
2013-11-14 08:30:00,32.8,22.0,30.36,SE,139,3.0,5.0,64,0.00,,,0.00,211,Wunderground v.1.15,2013-11-14 13:30:00,
2013-11-14 08:31:00,32.9,22.0,30.36,ESE,117,4.0,5.0,64,0.00,,,0.00,213,Wunderground v.1.15,2013-11-14 13:31:00,
2013-11-14 08:33:00,33.0,22.1,30.36,SE,133,4.0,5.0,64,0.00,,,0.00,216,Wunderground v.1.15,2013-11-14 13:33:00,
2013-11-14 08:35:00,33.2,22.3,30.36,ESE,103,4.0,5.0,64,0.00,,,0.00,218,Wunderground v.1.15,2013-11-14 13:35:00,
2013-11-14 08:37:00,33.4,22.1,30.36,ESE,115,4.0,6.0,63,0.00,,,0.00,227,Wunderground v.1.15,2013-11-14 13:37:00,
2013-11-14 08:38:00,33.4,21.8,30.36,WSW,246,3.0,6.0,62,0.00,,,0.00,230,Wunderground v.1.15,2013-11-14 13:38:00,
2013-11-14 08:41:00,33.7,22.1,30.36,WSW,255,3.0,3.0,62,0.00,,,0.00,237,Wunderground v.1.15,2013-11-14 13:41:00,
2013-11-14 08:42:00,33.8,22.1,30.36,SSE,161,3.0,3.0,62,0.00,,,0.00,244,Wunderground v.1.15,2013-11-14 13:42:00,
2013-11-14 08:44:00,34.0,22.0,30.36,West,261,3.0,5.0,61,0.00,,,0.00,250,Wunderground v.1.15,2013-11-14 13:44:00,
2013-11-14 08:45:00,34.1,21.7,30.36,SE,144,3.0,5.0,60,0.00,,,0.00,251,Wunderground v.1.15,2013-11-14 13:45:00,
2013-11-14 08:46:00,34.2,21.7,30.36,East,88,3.0,5.0,60,0.00,,,0.00,253,Wunderground v.1.15,2013-11-14 13:46:00,
2013-11-14 08:47:00,34.3,21.8,30.36,NW,318,3.0,5.0,60,0.00,,,0.00,255,Wunderground v.1.15,2013-11-14 13:47:00,
2013-11-14 08:48:00,34.4,21.5,30.36,South,175,3.0,5.0,59,0.00,,,0.00,260,Wunderground v.1.15,2013-11-14 13:48:00,
2013-11-14 08:49:00,34.5,21.6,30.36,SE,144,3.0,5.0,59,0.00,,,0.00,264,Wunderground v.1.15,2013-11-14 13:49:00,
2013-11-14 08:53:00,34.8,21.1,30.36,ESE,114,4.0,4.0,57,0.00,,,0.00,271,Wunderground v.1.15,2013-11-14 13:53:00,
2013-11-14 08:55:00,34.9,21.2,30.36,NE,42,4.0,4.0,57,0.00,,,0.00,278,Wunderground v.1.15,2013-11-14 13:55:00,
2013-11-14 08:58:00,35.1,21.4,30.36,West,277,4.0,4.0,57,0.00,,,0.00,285,Wunderground v.1.15,2013-11-14 13:58:00,
2013-11-14 08:59:00,35.2,21.1,30.36,WSW,254,4.0,6.0,56,0.00,,,0.00,285,Wunderground v.1.15,2013-11-14 13:59:00,
2013-11-14 09:00:00,35.3,21.2,30.36,West,277,4.0,5.0,56,0.00,,,0.00,288,Wunderground v.1.15,2013-11-14 14:00:00,
2013-11-14 09:01:00,35.3,20.7,30.36,West,265,4.0,7.0,55,0.00,,,0.00,290,Wunderground v.1.15,2013-11-14 14:01:00,
2013-11-14 09:04:00,35.4,20.8,30.36,SE,136,4.0,7.0,55,0.00,,,0.00,295,Wunderground v.1.15,2013-11-14 14:04:00,
2013-11-14 09:05:00,35.5,20.9,30.36,SE,144,4.0,7.0,55,0.00,,,0.00,297,Wunderground v.1.15,2013-11-14 14:05:00,
2013-11-14 09:06:00,35.6,21.0,30.36,ESE,123,4.0,8.0,55,0.00,,,0.00,301,Wunderground v.1.15,2013-11-14 14:06:00,
2013-11-14 09:10:00,35.7,20.7,30.36,ESE,105,5.0,5.0,54,0.00,,,0.00,311,Wunderground v.1.15,2013-11-14 14:10:00,
2013-11-14 09:11:00,35.8,21.2,30.36,SSE,166,5.0,5.0,55,0.00,,,0.00,315,Wunderground v.1.15,2013-11-14 14:11:00,
2013-11-14 09:12:00,35.9,20.9,30.36,SE,126,5.0,7.0,54,0.00,,,0.00,316,Wunderground v.1.15,2013-11-14 14:12:00,
2013-11-14 09:14:00,36.0,20.5,30.36,WNW,284,5.0,7.0,53,0.00,,,0.00,322,Wunderground v.1.15,2013-11-14 14:14:00,
2013-11-14 09:18:00,36.2,20.7,30.36,NNE,13,5.0,7.0,53,0.00,,,0.00,327,Wunderground v.1.15,2013-11-14 14:18:00,
2013-11-14 09:20:00,36.4,20.0,30.36,SE,126,5.0,11.0,51,0.00,,,0.00,334,Wunderground v.1.15,2013-11-14 14:20:00,
2013-11-14 09:21:00,36.4,20.0,30.35,SE,134,5.0,11.0,51,0.00,,,0.00,336,Wunderground v.1.15,2013-11-14 14:21:00,
2013-11-14 09:22:00,36.5,20.1,30.36,SSE,154,5.0,11.0,51,0.00,,,0.00,338,Wunderground v.1.15,2013-11-14 14:22:00,
2013-11-14 09:24:00,36.6,20.2,30.36,SSE,167,5.0,11.0,51,0.00,,,0.00,343,Wunderground v.1.15,2013-11-14 14:24:00,
2013-11-14 09:29:00,36.9,20.0,30.35,South,173,6.0,11.0,50,0.00,,,0.00,350,Wunderground v.1.15,2013-11-14 14:29:00,
2013-11-14 09:30:00,37.0,20.5,30.35,NNE,12,6.0,6.0,51,0.00,,,0.00,353,Wunderground v.1.15,2013-11-14 14:30:00,
2013-11-14 09:31:00,37.0,20.5,30.35,NW,326,5.0,6.0,51,0.00,,,0.00,355,Wunderground v.1.15,2013-11-14 14:31:00,
2013-11-14 09:32:00,37.1,20.6,30.35,SE,128,5.0,7.0,51,0.00,,,0.00,357,Wunderground v.1.15,2013-11-14 14:32:00,
2013-11-14 09:34:00,37.4,20.4,30.35,SE,145,5.0,12.0,50,0.00,,,0.00,360,Wunderground v.1.15,2013-11-14 14:34:00,
2013-11-14 09:37:00,37.5,20.5,30.35,East,93,6.0,12.0,50,0.00,,,0.00,367,Wunderground v.1.15,2013-11-14 14:37:00,
2013-11-14 09:38:00,37.5,20.5,30.35,SE,139,6.0,12.0,50,0.00,,,0.00,373,Wunderground v.1.15,2013-11-14 14:38:00,
2013-11-14 09:44:00,37.9,20.4,30.35,SE,126,6.0,7.0,49,0.00,,,0.00,380,Wunderground v.1.15,2013-11-14 14:44:00,
2013-11-14 09:46:00,38.0,20.0,30.35,ESE,109,6.0,7.0,48,0.00,,,0.00,385,Wunderground v.1.15,2013-11-14 14:46:00,
2013-11-14 09:48:00,38.0,20.0,30.35,East,96,6.0,11.0,48,0.00,,,0.00,392,Wunderground v.1.15,2013-11-14 14:48:00,
2013-11-14 09:49:00,38.0,20.0,30.35,ESE,120,6.0,11.0,48,0.00,,,0.00,394,Wunderground v.1.15,2013-11-14 14:49:00,
2013-11-14 09:54:00,38.4,20.4,30.35,SE,146,7.0,9.0,48,0.00,,,0.00,320,Wunderground v.1.15,2013-11-14 14:54:00,
2013-11-14 09:58:00,38.7,19.7,30.35,SE,126,7.0,9.0,46,0.00,,,0.00,376,Wunderground v.1.15,2013-11-14 14:58:00,
2013-11-14 09:59:00,38.7,19.7,30.35,ESE,108,6.0,9.0,46,0.00,,,0.00,413,Wunderground v.1.15,2013-11-14 14:59:00,
2013-11-14 10:02:00,38.8,19.2,30.35,ESE,122,7.0,10.0,45,0.00,,,0.00,418,Wunderground v.1.15,2013-11-14 15:02:00,
2013-11-14 10:06:00,39.2,19.1,30.35,ESE,117,7.0,10.0,44,0.00,,,0.00,422,Wunderground v.1.15,2013-11-14 15:06:00,
2013-11-14 10:07:00,39.2,19.1,30.35,East,92,8.0,10.0,44,0.00,,,0.00,424,Wunderground v.1.15,2013-11-14 15:07:00,
2013-11-14 10:08:00,39.3,19.2,30.35,SE,143,7.0,10.0,44,0.00,,,0.00,424,Wunderground v.1.15,2013-11-14 15:08:00,
2013-11-14 10:09:00,39.4,19.3,30.35,ESE,119,7.0,10.0,44,0.00,,,0.00,422,Wunderground v.1.15,2013-11-14 15:09:00,
2013-11-14 10:10:00,39.5,19.4,30.35,SE,126,7.0,9.0,44,0.00,,,0.00,415,Wunderground v.1.15,2013-11-14 15:10:00,
2013-11-14 10:15:00,39.8,19.6,30.35,NE,46,7.0,9.0,44,0.00,,,0.00,431,Wunderground v.1.15,2013-11-14 15:15:00,
2013-11-14 10:16:00,40.0,19.8,30.35,ESE,114,7.0,9.0,44,0.00,,,0.00,436,Wunderground v.1.15,2013-11-14 15:16:00,
2013-11-14 10:19:00,40.2,18.9,30.35,ESE,105,7.0,10.0,42,0.00,,,0.00,443,Wunderground v.1.15,2013-11-14 15:19:00,
2013-11-14 10:20:00,40.2,18.9,30.35,SE,130,7.0,10.0,42,0.00,,,0.00,446,Wunderground v.1.15,2013-11-14 15:20:00,
2013-11-14 10:22:00,40.3,19.0,30.35,SE,130,7.0,10.0,42,0.00,,,0.00,450,Wunderground v.1.15,2013-11-14 15:22:00,
2013-11-14 10:25:00,40.5,19.2,30.35,East,98,7.0,10.0,42,0.00,,,0.00,429,Wunderground v.1.15,2013-11-14 15:25:00,
2013-11-14 10:27:00,40.6,19.3,30.35,ESE,121,7.0,10.0,42,0.00,,,0.00,336,Wunderground v.1.15,2013-11-14 15:27:00,
2013-11-14 10:31:00,40.9,19.5,30.35,NNE,20,6.0,6.0,42,0.00,,,0.00,313,Wunderground v.1.15,2013-11-14 15:31:00,
2013-11-14 10:32:00,41.0,19.6,30.35,West,268,6.0,8.0,42,0.00,,,0.00,294,Wunderground v.1.15,2013-11-14 15:32:00,
2013-11-14 10:33:00,41.1,19.2,30.35,SE,132,6.0,8.0,41,0.00,,,0.00,306,Wunderground v.1.15,2013-11-14 15:33:00,
2013-11-14 10:36:00,41.2,19.2,30.35,SE,126,5.0,8.0,41,0.00,,,0.00,309,Wunderground v.1.15,2013-11-14 15:36:00,
2013-11-14 10:38:00,41.3,19.3,30.35,SE,132,5.0,8.0,41,0.00,,,0.00,287,Wunderground v.1.15,2013-11-14 15:38:00,
2013-11-14 10:39:00,41.3,18.8,30.35,ESE,110,5.0,8.0,40,0.00,,,0.00,241,Wunderground v.1.15,2013-11-14 15:39:00,
2013-11-14 10:40:00,41.3,18.8,30.35,SE,143,5.0,5.0,40,0.00,,,0.00,292,Wunderground v.1.15,2013-11-14 15:40:00,
2013-11-14 10:43:00,41.2,18.7,30.35,ESE,113,6.0,6.0,40,0.00,,,0.00,281,Wunderground v.1.15,2013-11-14 15:43:00,
2013-11-14 10:44:00,41.1,18.6,30.34,SE,124,6.0,6.0,40,0.00,,,0.00,279,Wunderground v.1.15,2013-11-14 15:44:00,
2013-11-14 10:48:00,41.3,18.8,30.34,SSE,148,6.0,8.0,40,0.00,,,0.00,295,Wunderground v.1.15,2013-11-14 15:48:00,
2013-11-14 10:49:00,41.3,18.8,30.34,SE,126,6.0,8.0,40,0.00,,,0.00,299,Wunderground v.1.15,2013-11-14 15:49:00,
2013-11-14 10:50:00,41.5,18.9,30.34,SE,126,6.0,7.0,40,0.00,,,0.00,299,Wunderground v.1.15,2013-11-14 15:50:00,
2013-11-14 10:51:00,41.5,18.4,30.34,ESE,102,6.0,7.0,39,0.00,,,0.00,496,Wunderground v.1.15,2013-11-14 15:51:00,
2013-11-14 10:52:00,41.6,19.0,30.34,ESE,108,5.0,7.0,40,0.00,,,0.00,482,Wunderground v.1.15,2013-11-14 15:52:00,
2013-11-14 10:56:00,42.0,19.4,30.34,SSE,165,6.0,7.0,40,0.00,,,0.00,487,Wunderground v.1.15,2013-11-14 15:56:00,
2013-11-14 10:58:00,42.2,19.6,30.34,West,269,5.0,7.0,40,0.00,,,0.00,302,Wunderground v.1.15,2013-11-14 15:58:00,
2013-11-14 11:00:00,42.4,19.2,30.34,WSW,257,5.0,5.0,39,0.00,,,0.00,396,Wunderground v.1.15,2013-11-14 16:00:00,
2013-11-14 11:01:00,42.4,19.2,30.34,SE,126,5.0,7.0,39,0.00,,,0.00,353,Wunderground v.1.15,2013-11-14 16:01:00,
2013-11-14 11:02:00,42.5,19.3,30.34,West,271,5.0,7.0,39,0.00,,,0.00,434,Wunderground v.1.15,2013-11-14 16:02:00,
2013-11-14 11:05:00,42.7,19.4,30.33,SE,128,4.0,8.0,39,0.00,,,0.00,429,Wunderground v.1.15,2013-11-14 16:05:00,
2013-11-14 11:07:00,42.8,18.9,30.33,ESE,118,5.0,9.0,38,0.00,,,0.00,482,Wunderground v.1.15,2013-11-14 16:07:00,
2013-11-14 11:09:00,42.8,19.5,30.33,SW,230,5.0,9.0,39,0.00,,,0.00,436,Wunderground v.1.15,2013-11-14 16:09:00,
2013-11-14 11:11:00,42.9,19.6,30.33,East,98,5.0,5.0,39,0.00,,,0.00,464,Wunderground v.1.15,2013-11-14 16:11:00,
2013-11-14 11:13:00,43.2,19.9,30.33,SE,144,5.0,6.0,39,0.00,,,0.00,432,Wunderground v.1.15,2013-11-14 16:13:00,
2013-11-14 11:16:00,43.5,19.5,30.32,NNW,345,5.0,8.0,38,0.00,,,0.00,394,Wunderground v.1.15,2013-11-14 16:16:00,
2013-11-14 11:17:00,43.6,19.6,30.32,NE,36,5.0,8.0,38,0.00,,,0.00,394,Wunderground v.1.15,2013-11-14 16:17:00,
2013-11-14 11:19:00,43.6,19.6,30.32,SSE,155,4.0,8.0,38,0.00,,,0.00,378,Wunderground v.1.15,2013-11-14 16:19:00,
2013-11-14 11:20:00,43.7,20.3,30.32,SE,130,4.0,6.0,39,0.00,,,0.00,366,Wunderground v.1.15,2013-11-14 16:20:00,
2013-11-14 11:21:00,43.7,19.7,30.32,SSE,149,4.0,6.0,38,0.00,,,0.00,378,Wunderground v.1.15,2013-11-14 16:21:00,
2013-11-14 11:23:00,43.7,19.1,30.32,SE,146,5.0,8.0,37,0.00,,,0.00,424,Wunderground v.1.15,2013-11-14 16:23:00,
2013-11-14 11:25:00,43.7,19.1,30.32,SE,136,6.0,9.0,37,0.00,,,0.00,482,Wunderground v.1.15,2013-11-14 16:25:00,
2013-11-14 11:26:00,43.7,19.7,30.32,SE,125,6.0,9.0,38,0.00,,,0.00,443,Wunderground v.1.15,2013-11-14 16:26:00,
2013-11-14 11:27:00,43.7,19.7,30.32,SSE,147,6.0,9.0,38,0.00,,,0.00,408,Wunderground v.1.15,2013-11-14 16:27:00,
2013-11-14 11:29:00,44.0,20.0,30.32,SE,142,6.0,9.0,38,0.00,,,0.00,483,Wunderground v.1.15,2013-11-14 16:29:00,
2013-11-14 11:30:00,44.1,20.1,30.32,SSE,154,6.0,6.0,38,0.00,,,0.00,422,Wunderground v.1.15,2013-11-14 16:30:00,
2013-11-14 11:34:00,44.5,19.8,30.31,NW,319,6.0,6.0,37,0.00,,,0.00,517,Wunderground v.1.15,2013-11-14 16:34:00,
2013-11-14 11:35:00,44.7,20.0,30.31,SE,125,5.0,8.0,37,0.00,,,0.00,473,Wunderground v.1.15,2013-11-14 16:35:00,
2013-11-14 11:36:00,44.9,19.5,30.31,SE,126,5.0,8.0,36,0.00,,,0.00,462,Wunderground v.1.15,2013-11-14 16:36:00,
2013-11-14 11:39:00,45.1,19.7,30.31,SE,130,6.0,10.0,36,0.00,,,0.00,522,Wunderground v.1.15,2013-11-14 16:39:00,
2013-11-14 11:42:00,45.4,19.3,30.31,West,281,5.0,5.0,35,0.00,,,0.00,526,Wunderground v.1.15,2013-11-14 16:42:00,
2013-11-14 11:44:00,45.6,18.8,30.31,West,271,6.0,7.0,34,0.00,,,0.00,533,Wunderground v.1.15,2013-11-14 16:44:00,
2013-11-14 11:45:00,45.7,18.9,30.31,West,278,6.0,7.0,34,0.00,,,0.00,538,Wunderground v.1.15,2013-11-14 16:45:00,
2013-11-14 11:46:00,45.8,19.0,30.31,SE,139,5.0,7.0,34,0.00,,,0.00,543,Wunderground v.1.15,2013-11-14 16:46:00,
2013-11-14 11:48:00,46.0,18.5,30.31,SE,143,5.0,7.0,33,0.00,,,0.00,550,Wunderground v.1.15,2013-11-14 16:48:00,
2013-11-14 11:50:00,46.1,18.6,30.31,West,270,5.0,6.0,33,0.00,,,0.00,550,Wunderground v.1.15,2013-11-14 16:50:00,
2013-11-14 11:52:00,46.3,18.0,30.30,East,96,5.0,9.0,32,0.00,,,0.00,533,Wunderground v.1.15,2013-11-14 16:52:00,
2013-11-14 11:53:00,46.3,18.7,30.30,SE,125,5.0,9.0,33,0.00,,,0.00,526,Wunderground v.1.15,2013-11-14 16:53:00,
2013-11-14 11:55:00,46.5,18.9,30.30,ESE,121,6.0,11.0,33,0.00,,,0.00,554,Wunderground v.1.15,2013-11-14 16:55:00,
2013-11-14 11:56:00,46.6,18.3,30.30,SE,129,6.0,11.0,32,0.00,,,0.00,559,Wunderground v.1.15,2013-11-14 16:56:00,
2013-11-14 11:59:00,46.8,18.5,30.30,SE,137,7.0,11.0,32,0.00,,,0.00,527,Wunderground v.1.15,2013-11-14 16:59:00,
2013-11-14 12:00:00,47.0,17.9,30.30,SE,133,7.0,7.0,31,0.00,,,0.00,550,Wunderground v.1.15,2013-11-14 17:00:00,
2013-11-14 12:02:00,47.2,18.1,30.30,WNW,286,7.0,8.0,31,0.00,,,0.00,504,Wunderground v.1.15,2013-11-14 17:02:00,
2013-11-14 12:03:00,47.4,18.2,30.30,ESE,121,7.0,8.0,31,0.00,,,0.00,394,Wunderground v.1.15,2013-11-14 17:03:00,
2013-11-14 12:06:00,47.8,18.6,30.30,WNW,291,6.0,8.0,31,0.00,,,0.00,561,Wunderground v.1.15,2013-11-14 17:06:00,
2013-11-14 12:07:00,48.0,18.8,30.30,West,272,5.0,8.0,31,0.00,,,0.00,554,Wunderground v.1.15,2013-11-14 17:07:00,
2013-11-14 12:09:00,48.4,17.6,30.30,WSW,254,4.0,8.0,29,0.00,,,0.00,550,Wunderground v.1.15,2013-11-14 17:09:00,
2013-11-14 12:11:00,48.7,17.8,30.30,WNW,287,4.0,5.0,29,0.00,,,0.00,547,Wunderground v.1.15,2013-11-14 17:11:00,
2013-11-14 12:12:00,48.8,16.2,30.30,WSW,254,4.0,6.0,27,0.00,,,0.00,548,Wunderground v.1.15,2013-11-14 17:12:00,
2013-11-14 12:13:00,48.9,16.3,30.30,WNW,297,4.0,6.0,27,0.00,,,0.00,545,Wunderground v.1.15,2013-11-14 17:13:00,
2013-11-14 12:16:00,49.2,17.4,30.29,WNW,296,4.0,7.0,28,0.00,,,0.00,526,Wunderground v.1.15,2013-11-14 17:16:00,
2013-11-14 12:18:00,49.5,16.9,30.29,NNW,329,4.0,7.0,27,0.00,,,0.00,520,Wunderground v.1.15,2013-11-14 17:18:00,
2013-11-14 12:19:00,49.6,16.1,30.29,North,355,4.0,7.0,26,0.00,,,0.00,520,Wunderground v.1.15,2013-11-14 17:19:00,
2013-11-14 12:22:00,49.6,16.1,30.29,WNW,294,5.0,7.0,26,0.00,,,0.00,397,Wunderground v.1.15,2013-11-14 17:22:00,
2013-11-14 12:23:00,49.5,15.1,30.29,West,273,6.0,7.0,25,0.00,,,0.00,520,Wunderground v.1.15,2013-11-14 17:23:00,
2013-11-14 12:24:00,49.5,15.1,30.29,West,266,6.0,7.0,25,0.00,,,0.00,536,Wunderground v.1.15,2013-11-14 17:24:00,
2013-11-14 12:27:00,49.4,15.9,30.28,WNW,284,6.0,7.0,26,0.00,,,0.00,352,Wunderground v.1.15,2013-11-14 17:27:00,
2013-11-14 12:29:00,49.5,16.0,30.28,West,259,6.0,7.0,26,0.00,,,0.00,448,Wunderground v.1.15,2013-11-14 17:29:00,
2013-11-14 12:30:00,49.5,15.1,30.29,WNW,300,7.0,7.0,25,0.00,,,0.00,392,Wunderground v.1.15,2013-11-14 17:30:00,
2013-11-14 12:31:00,49.5,16.0,30.29,WNW,294,7.0,7.0,26,0.00,,,0.00,316,Wunderground v.1.15,2013-11-14 17:31:00,
2013-11-14 12:32:00,49.5,16.0,30.29,WNW,288,7.0,9.0,26,0.00,,,0.00,506,Wunderground v.1.15,2013-11-14 17:32:00,
2013-11-14 12:33:00,49.5,15.1,30.28,WNW,293,6.0,9.0,25,0.00,,,0.00,443,Wunderground v.1.15,2013-11-14 17:33:00,
2013-11-14 12:37:00,49.6,16.1,30.28,West,281,7.0,12.0,26,0.00,,,0.00,534,Wunderground v.1.15,2013-11-14 17:37:00,
2013-11-14 12:38:00,49.7,14.3,30.28,West,277,7.0,12.0,24,0.00,,,0.00,431,Wunderground v.1.15,2013-11-14 17:38:00,
2013-11-14 12:39:00,49.7,15.2,30.28,West,271,7.0,12.0,25,0.00,,,0.00,420,Wunderground v.1.15,2013-11-14 17:39:00,
2013-11-14 12:40:00,49.7,14.3,30.28,WNW,299,7.0,7.0,24,0.00,,,0.00,454,Wunderground v.1.15,2013-11-14 17:40:00,
2013-11-14 12:41:00,49.7,14.3,30.28,WNW,286,7.0,10.0,24,0.00,,,0.00,450,Wunderground v.1.15,2013-11-14 17:41:00,
2013-11-14 12:44:00,49.9,13.5,30.28,WSW,252,7.0,10.0,23,0.00,,,0.00,385,Wunderground v.1.15,2013-11-14 17:44:00,
2013-11-14 12:45:00,49.8,14.4,30.28,NNW,331,7.0,10.0,24,0.00,,,0.00,348,Wunderground v.1.15,2013-11-14 17:45:00,
2013-11-14 12:47:00,49.9,13.5,30.28,WSW,257,7.0,10.0,23,0.00,,,0.00,348,Wunderground v.1.15,2013-11-14 17:47:00,
2013-11-14 12:51:00,50.1,13.7,30.28,WNW,290,7.0,7.0,23,0.00,,,0.00,482,Wunderground v.1.15,2013-11-14 17:51:00,
2013-11-14 12:52:00,50.3,13.9,30.28,WNW,292,7.0,8.0,23,0.00,,,0.00,496,Wunderground v.1.15,2013-11-14 17:52:00,
2013-11-14 12:53:00,50.4,13.9,30.28,WSW,253,7.0,8.0,23,0.00,,,0.00,496,Wunderground v.1.15,2013-11-14 17:53:00,
2013-11-14 12:57:00,50.7,16.1,30.28,WNW,292,6.0,8.0,25,0.00,,,0.00,279,Wunderground v.1.15,2013-11-14 17:57:00,
2013-11-14 12:58:00,50.6,16.0,30.28,West,264,6.0,10.0,25,0.00,,,0.00,304,Wunderground v.1.15,2013-11-14 17:58:00,
2013-11-14 13:01:00,50.4,14.9,30.28,WNW,294,6.0,7.0,24,0.00,,,0.00,288,Wunderground v.1.15,2013-11-14 18:01:00,
2013-11-14 13:02:00,50.3,14.8,30.28,NW,319,6.0,7.0,24,0.00,,,0.00,288,Wunderground v.1.15,2013-11-14 18:02:00,
2013-11-14 13:03:00,50.3,13.9,30.28,NNW,336,6.0,7.0,23,0.00,,,0.00,362,Wunderground v.1.15,2013-11-14 18:03:00,
2013-11-14 13:04:00,50.3,15.8,30.28,NW,316,5.0,7.0,25,0.00,,,0.00,325,Wunderground v.1.15,2013-11-14 18:04:00,
2013-11-14 13:07:00,50.5,16.8,30.28,SE,130,5.0,7.0,26,0.00,,,0.00,278,Wunderground v.1.15,2013-11-14 18:07:00,
2013-11-14 13:08:00,50.6,16.0,30.28,West,263,5.0,7.0,25,0.00,,,0.00,243,Wunderground v.1.15,2013-11-14 18:08:00,
2013-11-14 13:09:00,50.6,16.0,30.28,South,186,5.0,7.0,25,0.00,,,0.00,230,Wunderground v.1.15,2013-11-14 18:09:00,
2013-11-14 13:12:00,50.6,16.9,30.27,WSW,252,4.0,7.0,26,0.00,,,0.00,258,Wunderground v.1.15,2013-11-14 18:12:00,
2013-11-14 13:13:00,50.6,16.0,30.27,West,275,4.0,7.0,25,0.00,,,0.00,272,Wunderground v.1.15,2013-11-14 18:13:00,
2013-11-14 13:15:00,50.6,15.1,30.27,WNW,286,4.0,7.0,24,0.00,,,0.00,260,Wunderground v.1.15,2013-11-14 18:15:00,
2013-11-14 13:16:00,50.7,15.2,30.27,West,264,4.0,7.0,24,0.00,,,0.00,269,Wunderground v.1.15,2013-11-14 18:16:00,
2013-11-14 13:18:00,50.8,16.2,30.27,WNW,301,4.0,7.0,25,0.00,,,0.00,267,Wunderground v.1.15,2013-11-14 18:18:00,
2013-11-14 13:19:00,50.7,13.2,30.27,WNW,285,4.0,7.0,22,0.00,,,0.00,281,Wunderground v.1.15,2013-11-14 18:19:00,
2013-11-14 13:21:00,50.7,13.2,30.27,NW,319,5.0,8.0,22,0.00,,,0.00,269,Wunderground v.1.15,2013-11-14 18:21:00,
2013-11-14 13:23:00,50.7,13.2,30.27,West,269,5.0,8.0,22,0.00,,,0.00,304,Wunderground v.1.15,2013-11-14 18:23:00,
2013-11-14 13:25:00,50.6,13.1,30.27,NW,309,6.0,8.0,22,0.00,,,0.00,237,Wunderground v.1.15,2013-11-14 18:25:00,
2013-11-14 13:27:00,50.7,14.2,30.27,West,279,6.0,8.0,23,0.00,,,0.00,229,Wunderground v.1.15,2013-11-14 18:27:00,
2013-11-14 13:28:00,50.7,14.2,30.27,WNW,297,6.0,8.0,23,0.00,,,0.00,218,Wunderground v.1.15,2013-11-14 18:28:00,
2013-11-14 13:32:00,50.8,14.3,30.27,NW,320,5.0,7.0,23,0.00,,,0.00,202,Wunderground v.1.15,2013-11-14 18:32:00,
2013-11-14 13:33:00,50.8,14.3,30.27,North,11,5.0,7.0,23,0.00,,,0.00,200,Wunderground v.1.15,2013-11-14 18:33:00,
2013-11-14 13:34:00,50.8,14.3,30.27,West,274,5.0,7.0,23,0.00,,,0.00,197,Wunderground v.1.15,2013-11-14 18:34:00,
2013-11-14 13:38:00,50.8,14.3,30.27,WNW,297,4.0,7.0,23,0.00,,,0.00,197,Wunderground v.1.15,2013-11-14 18:38:00,
2013-11-14 13:39:00,50.8,14.3,30.26,WNW,288,4.0,7.0,23,0.00,,,0.00,197,Wunderground v.1.15,2013-11-14 18:39:00,
2013-11-14 13:41:00,50.8,14.3,30.26,West,275,4.0,4.0,23,0.00,,,0.00,199,Wunderground v.1.15,2013-11-14 18:41:00,
2013-11-14 13:42:00,50.8,15.2,30.26,WNW,282,4.0,4.0,24,0.00,,,0.00,199,Wunderground v.1.15,2013-11-14 18:42:00,
2013-11-14 13:43:00,50.8,15.2,30.26,West,261,4.0,6.0,24,0.00,,,0.00,199,Wunderground v.1.15,2013-11-14 18:43:00,
2013-11-14 13:47:00,50.9,15.3,30.26,West,262,4.0,6.0,24,0.00,,,0.00,186,Wunderground v.1.15,2013-11-14 18:47:00,
2013-11-14 13:48:00,50.9,15.3,30.26,WNW,285,3.0,6.0,24,0.00,,,0.00,178,Wunderground v.1.15,2013-11-14 18:48:00,
2013-11-14 13:49:00,50.9,15.3,30.26,SE,138,3.0,6.0,24,0.00,,,0.00,176,Wunderground v.1.15,2013-11-14 18:49:00,
2013-11-14 13:51:00,51.0,15.4,30.26,WNW,294,3.0,4.0,24,0.00,,,0.00,172,Wunderground v.1.15,2013-11-14 18:51:00,
2013-11-14 13:54:00,50.9,13.3,30.26,West,265,3.0,5.0,22,0.00,,,0.00,169,Wunderground v.1.15,2013-11-14 18:54:00,
2013-11-14 13:55:00,50.9,14.4,30.26,WNW,285,3.0,5.0,23,0.00,,,0.00,169,Wunderground v.1.15,2013-11-14 18:55:00,
2013-11-14 13:58:00,50.8,13.3,30.26,West,265,4.0,9.0,22,0.00,,,0.00,169,Wunderground v.1.15,2013-11-14 18:58:00,
2013-11-14 13:59:00,50.7,14.2,30.26,WNW,287,4.0,4.0,23,0.00,,,0.00,165,Wunderground v.1.15,2013-11-14 18:59:00,
2013-11-14 14:01:00,50.6,13.1,30.26,WNW,301,4.0,6.0,22,0.00,,,0.00,163,Wunderground v.1.15,2013-11-14 19:01:00,
2013-11-14 14:03:00,50.5,13.0,30.26,West,259,4.0,6.0,22,0.00,,,0.00,162,Wunderground v.1.15,2013-11-14 19:03:00,
2013-11-14 14:04:00,50.4,13.9,30.26,WNW,284,4.0,6.0,23,0.00,,,0.00,163,Wunderground v.1.15,2013-11-14 19:04:00,
2013-11-14 14:07:00,50.3,13.9,30.26,WNW,303,4.0,6.0,23,0.00,,,0.00,153,Wunderground v.1.15,2013-11-14 19:07:00,
2013-11-14 14:09:00,50.2,12.8,30.26,West,275,4.0,8.0,22,0.00,,,0.00,146,Wunderground v.1.15,2013-11-14 19:09:00,
2013-11-14 14:10:00,50.1,12.7,30.26,WNW,286,4.0,4.0,22,0.00,,,0.00,139,Wunderground v.1.15,2013-11-14 19:10:00,
2013-11-14 14:13:00,49.9,12.5,30.26,West,265,5.0,6.0,22,0.00,,,0.00,132,Wunderground v.1.15,2013-11-14 19:13:00,
2013-11-14 14:16:00,49.8,13.4,30.26,NNW,338,5.0,6.0,23,0.00,,,0.00,125,Wunderground v.1.15,2013-11-14 19:16:00,
2013-11-14 14:17:00,49.8,13.4,30.26,West,277,5.0,6.0,23,0.00,,,0.00,123,Wunderground v.1.15,2013-11-14 19:17:00,
2013-11-14 14:18:00,49.7,13.3,30.26,WNW,293,5.0,6.0,23,0.00,,,0.00,121,Wunderground v.1.15,2013-11-14 19:18:00,
2013-11-14 14:21:00,49.8,14.4,30.26,WSW,258,4.0,4.0,24,0.00,,,0.00,120,Wunderground v.1.15,2013-11-14 19:21:00,
2013-11-14 14:22:00,49.8,13.4,30.26,WNW,292,4.0,4.0,23,0.00,,,0.00,118,Wunderground v.1.15,2013-11-14 19:22:00,
2013-11-14 14:23:00,49.8,14.4,30.26,West,275,4.0,4.0,24,0.00,,,0.00,116,Wunderground v.1.15,2013-11-14 19:23:00,
2013-11-14 14:24:00,49.8,14.4,30.26,WNW,297,3.0,4.0,24,0.00,,,0.00,116,Wunderground v.1.15,2013-11-14 19:24:00,
2013-11-14 14:25:00,49.8,14.4,30.26,West,278,3.0,6.0,24,0.00,,,0.00,114,Wunderground v.1.15,2013-11-14 19:25:00,
2013-11-14 14:27:00,49.9,14.5,30.26,West,271,3.0,6.0,24,0.00,,,0.00,113,Wunderground v.1.15,2013-11-14 19:27:00,
2013-11-14 14:28:00,49.9,14.5,30.26,West,268,3.0,6.0,24,0.00,,,0.00,111,Wunderground v.1.15,2013-11-14 19:28:00,
2013-11-14 14:30:00,50.0,14.6,30.26,SE,132,3.0,4.0,24,0.00,,,0.00,109,Wunderground v.1.15,2013-11-14 19:30:00,
2013-11-14 14:31:00,50.1,14.7,30.26,West,279,3.0,6.0,24,0.00,,,0.00,109,Wunderground v.1.15,2013-11-14 19:31:00,
2013-11-14 14:33:00,50.2,14.7,30.26,SW,232,4.0,6.0,24,0.00,,,0.00,111,Wunderground v.1.15,2013-11-14 19:33:00,
2013-11-14 14:36:00,50.3,14.8,30.26,West,272,4.0,6.0,24,0.00,,,0.00,107,Wunderground v.1.15,2013-11-14 19:36:00,
2013-11-14 14:37:00,50.3,14.8,30.26,SW,221,4.0,6.0,24,0.00,,,0.00,105,Wunderground v.1.15,2013-11-14 19:37:00,
2013-11-14 14:38:00,50.3,15.8,30.26,SSE,157,4.0,6.0,25,0.00,,,0.00,102,Wunderground v.1.15,2013-11-14 19:38:00,
2013-11-14 14:39:00,50.4,14.9,30.26,SE,130,4.0,6.0,24,0.00,,,0.00,100,Wunderground v.1.15,2013-11-14 19:39:00,
2013-11-14 14:42:00,50.4,13.9,30.26,SSE,155,5.0,7.0,23,0.00,,,0.00,104,Wunderground v.1.15,2013-11-14 19:42:00,
2013-11-14 14:44:00,50.4,14.9,30.26,SE,140,5.0,8.0,24,0.00,,,0.00,107,Wunderground v.1.15,2013-11-14 19:44:00,
2013-11-14 14:45:00,50.4,13.9,30.26,WNW,290,5.0,8.0,23,0.00,,,0.00,109,Wunderground v.1.15,2013-11-14 19:45:00,
2013-11-14 14:46:00,50.4,13.9,30.26,WSW,257,5.0,8.0,23,0.00,,,0.00,109,Wunderground v.1.15,2013-11-14 19:46:00,
2013-11-14 14:48:00,50.4,13.9,30.26,SE,130,5.0,8.0,23,0.00,,,0.00,107,Wunderground v.1.15,2013-11-14 19:48:00,
2013-11-14 14:51:00,50.4,14.9,30.26,West,276,4.0,5.0,24,0.00,,,0.00,109,Wunderground v.1.15,2013-11-14 19:51:00,
2013-11-14 14:53:00,50.3,14.8,30.26,SSW,206,4.0,5.0,24,0.00,,,0.00,102,Wunderground v.1.15,2013-11-14 19:53:00,
2013-11-14 14:55:00,50.4,13.9,30.26,West,267,4.0,5.0,23,0.00,,,0.00,97,Wunderground v.1.15,2013-11-14 19:55:00,
2013-11-14 14:57:00,50.3,12.8,30.26,West,263,4.0,9.0,22,0.00,,,0.00,90,Wunderground v.1.15,2013-11-14 19:57:00,
2013-11-14 14:59:00,50.4,13.9,30.26,WNW,296,4.0,9.0,23,0.00,,,0.00,83,Wunderground v.1.15,2013-11-14 19:59:00,
2013-11-14 15:00:00,50.4,13.9,30.26,West,261,4.0,4.0,23,0.00,,,0.00,83,Wunderground v.1.15,2013-11-14 20:00:00,
2013-11-14 15:02:00,50.5,13.0,30.26,WSW,246,4.0,5.0,22,0.00,,,0.00,79,Wunderground v.1.15,2013-11-14 20:02:00,
2013-11-14 15:04:00,50.6,13.1,30.26,West,264,5.0,8.0,22,0.00,,,0.00,76,Wunderground v.1.15,2013-11-14 20:04:00,
2013-11-14 15:05:00,50.6,13.1,30.26,West,262,5.0,8.0,22,0.00,,,0.00,74,Wunderground v.1.15,2013-11-14 20:05:00,
2013-11-14 15:06:00,50.7,13.2,30.26,WSW,248,5.0,8.0,22,0.00,,,0.00,72,Wunderground v.1.15,2013-11-14 20:06:00,
2013-11-14 15:07:00,50.7,14.2,30.26,SE,138,5.0,8.0,23,0.00,,,0.00,70,Wunderground v.1.15,2013-11-14 20:07:00,
2013-11-14 15:11:00,50.9,12.3,30.25,West,260,5.0,9.0,21,0.00,,,0.00,62,Wunderground v.1.15,2013-11-14 20:11:00,
2013-11-14 15:13:00,51.0,12.4,30.25,WSW,252,4.0,11.0,21,0.00,,,0.00,58,Wunderground v.1.15,2013-11-14 20:13:00,
2013-11-14 15:14:00,50.9,12.3,30.25,SSE,150,4.0,11.0,21,0.00,,,0.00,54,Wunderground v.1.15,2013-11-14 20:14:00,
2013-11-14 15:16:00,51.0,12.4,30.25,WNW,287,4.0,11.0,21,0.00,,,0.00,51,Wunderground v.1.15,2013-11-14 20:16:00,
2013-11-14 15:18:00,51.0,11.3,30.25,SE,128,5.0,11.0,20,0.00,,,0.00,51,Wunderground v.1.15,2013-11-14 20:18:00,
2013-11-14 15:20:00,51.0,11.3,30.25,WSW,254,5.0,7.0,20,0.00,,,0.00,46,Wunderground v.1.15,2013-11-14 20:20:00,
2013-11-14 15:21:00,51.0,11.3,30.25,West,273,5.0,7.0,20,0.00,,,0.00,46,Wunderground v.1.15,2013-11-14 20:21:00,
2013-11-14 15:24:00,51.0,11.3,30.25,NW,318,5.0,7.0,20,0.00,,,0.00,44,Wunderground v.1.15,2013-11-14 20:24:00,
2013-11-14 15:26:00,51.0,11.3,30.25,ESE,111,5.0,7.0,20,0.00,,,0.00,42,Wunderground v.1.15,2013-11-14 20:26:00,
2013-11-14 15:27:00,51.0,12.4,30.25,North,351,5.0,7.0,21,0.00,,,0.00,42,Wunderground v.1.15,2013-11-14 20:27:00,
2013-11-14 15:28:00,51.0,12.4,30.25,WSW,255,4.0,7.0,21,0.00,,,0.00,40,Wunderground v.1.15,2013-11-14 20:28:00,
2013-11-14 15:29:00,51.0,12.4,30.25,West,268,4.0,7.0,21,0.00,,,0.00,40,Wunderground v.1.15,2013-11-14 20:29:00,
2013-11-14 15:30:00,51.0,12.4,30.25,WSW,242,4.0,4.0,21,0.00,,,0.00,40,Wunderground v.1.15,2013-11-14 20:30:00,
2013-11-14 15:35:00,51.1,11.4,30.25,South,173,4.0,4.0,20,0.00,,,0.00,33,Wunderground v.1.15,2013-11-14 20:35:00,
2013-11-14 15:36:00,51.1,12.5,30.25,WSW,256,4.0,6.0,21,0.00,,,0.00,33,Wunderground v.1.15,2013-11-14 20:36:00,
2013-11-14 15:42:00,51.1,12.5,30.25,ENE,64,4.0,4.0,21,0.00,,,0.00,28,Wunderground v.1.15,2013-11-14 20:42:00,
2013-11-14 15:43:00,51.1,12.5,30.25,SSE,161,3.0,4.0,21,0.00,,,0.00,28,Wunderground v.1.15,2013-11-14 20:43:00,
2013-11-14 15:44:00,51.1,12.5,30.25,WNW,300,3.0,4.0,21,0.00,,,0.00,26,Wunderground v.1.15,2013-11-14 20:44:00,
2013-11-14 15:45:00,51.1,12.5,30.25,West,271,3.0,4.0,21,0.00,,,0.00,26,Wunderground v.1.15,2013-11-14 20:45:00,
2013-11-14 15:47:00,51.2,12.5,30.25,SE,144,3.0,5.0,21,0.00,,,0.00,25,Wunderground v.1.15,2013-11-14 20:47:00,
2013-11-14 15:50:00,51.2,12.5,30.25,SE,137,3.0,5.0,21,0.00,,,0.00,25,Wunderground v.1.15,2013-11-14 20:50:00,
2013-11-14 15:51:00,51.2,12.5,30.25,SE,125,3.0,5.0,21,0.00,,,0.00,25,Wunderground v.1.15,2013-11-14 20:51:00,
2013-11-14 15:53:00,51.2,11.4,30.25,SSE,157,4.0,5.0,20,0.00,,,0.00,23,Wunderground v.1.15,2013-11-14 20:53:00,
2013-11-14 15:56:00,51.1,12.5,30.25,SE,141,4.0,6.0,21,0.00,,,0.00,23,Wunderground v.1.15,2013-11-14 20:56:00,
2013-11-14 15:58:00,51.1,12.5,30.25,East,88,4.0,6.0,21,0.00,,,0.00,21,Wunderground v.1.15,2013-11-14 20:58:00,
2013-11-14 16:00:00,51.1,11.4,30.25,SE,140,4.0,4.0,20,0.00,,,0.00,21,Wunderground v.1.15,2013-11-14 21:00:00,
2013-11-14 16:03:00,51.1,12.5,30.25,NE,55,3.0,4.0,21,0.00,,,0.00,23,Wunderground v.1.15,2013-11-14 21:03:00,
2013-11-14 16:06:00,51.1,12.5,30.25,SSE,151,4.0,4.0,21,0.00,,,0.00,33,Wunderground v.1.15,2013-11-14 21:06:00,
2013-11-14 16:07:00,51.2,12.5,30.25,SE,140,4.0,5.0,21,0.00,,,0.00,30,Wunderground v.1.15,2013-11-14 21:07:00,
2013-11-14 16:10:00,51.2,12.5,30.25,South,190,4.0,4.0,21,0.00,,,0.00,21,Wunderground v.1.15,2013-11-14 21:10:00,
2013-11-14 16:14:00,51.2,11.4,30.25,SE,127,4.0,6.0,20,0.00,,,0.00,19,Wunderground v.1.15,2013-11-14 21:14:00,
2013-11-14 16:15:00,51.2,12.5,30.25,ESE,118,4.0,6.0,21,0.00,,,0.00,19,Wunderground v.1.15,2013-11-14 21:15:00,
2013-11-14 16:16:00,51.2,12.5,30.25,SE,135,5.0,6.0,21,0.00,,,0.00,19,Wunderground v.1.15,2013-11-14 21:16:00,
2013-11-14 16:17:00,51.2,12.5,30.25,ESE,110,5.0,6.0,21,0.00,,,0.00,19,Wunderground v.1.15,2013-11-14 21:17:00,
2013-11-14 16:18:00,51.2,12.5,30.25,SE,132,5.0,7.0,21,0.00,,,0.00,18,Wunderground v.1.15,2013-11-14 21:18:00,
2013-11-14 16:19:00,51.1,12.5,30.25,SE,130,5.0,7.0,21,0.00,,,0.00,16,Wunderground v.1.15,2013-11-14 21:19:00,
2013-11-14 16:24:00,51.0,12.4,30.25,SE,139,5.0,8.0,21,0.00,,,0.00,14,Wunderground v.1.15,2013-11-14 21:24:00,
2013-11-14 16:25:00,51.0,12.4,30.25,ESE,113,5.0,8.0,21,0.00,,,0.00,14,Wunderground v.1.15,2013-11-14 21:25:00,
2013-11-14 16:26:00,51.0,12.4,30.25,SSE,159,5.0,8.0,21,0.00,,,0.00,14,Wunderground v.1.15,2013-11-14 21:26:00,
2013-11-14 16:27:00,51.0,12.4,30.25,SSE,158,5.0,8.0,21,0.00,,,0.00,12,Wunderground v.1.15,2013-11-14 21:27:00,
2013-11-14 16:28:00,51.0,12.4,30.25,SE,127,5.0,8.0,21,0.00,,,0.00,12,Wunderground v.1.15,2013-11-14 21:28:00,
2013-11-14 16:29:00,50.9,12.3,30.25,SE,127,5.0,8.0,21,0.00,,,0.00,12,Wunderground v.1.15,2013-11-14 21:29:00,
2013-11-14 16:31:00,50.9,12.3,30.25,SSE,150,5.0,7.0,21,0.00,,,0.00,11,Wunderground v.1.15,2013-11-14 21:31:00,
2013-11-14 16:34:00,50.9,11.2,30.25,SSE,150,6.0,8.0,20,0.00,,,0.00,11,Wunderground v.1.15,2013-11-14 21:34:00,
2013-11-14 16:35:00,50.9,11.2,30.25,SE,141,6.0,8.0,20,0.00,,,0.00,11,Wunderground v.1.15,2013-11-14 21:35:00,
2013-11-14 16:36:00,50.8,11.1,30.25,SE,140,6.0,8.0,20,0.00,,,0.00,11,Wunderground v.1.15,2013-11-14 21:36:00,
2013-11-14 16:38:00,50.7,11.0,30.25,SE,124,6.0,8.0,20,0.00,,,0.00,9,Wunderground v.1.15,2013-11-14 21:38:00,
2013-11-14 16:41:00,50.6,12.0,30.25,ESE,123,7.0,7.0,21,0.00,,,0.00,7,Wunderground v.1.15,2013-11-14 21:41:00,
2013-11-14 16:43:00,50.5,12.0,30.25,SE,132,6.0,7.0,21,0.00,,,0.00,7,Wunderground v.1.15,2013-11-14 21:43:00,
2013-11-14 16:44:00,50.4,11.9,30.25,ESE,123,6.0,7.0,21,0.00,,,0.00,5,Wunderground v.1.15,2013-11-14 21:44:00,
2013-11-14 16:45:00,50.4,11.9,30.25,SE,140,6.0,7.0,21,0.00,,,0.00,5,Wunderground v.1.15,2013-11-14 21:45:00,
2013-11-14 16:48:00,50.2,11.7,30.26,SE,132,5.0,7.0,21,0.00,,,0.00,5,Wunderground v.1.15,2013-11-14 21:48:00,
2013-11-14 16:50:00,50.1,11.6,30.26,West,267,4.0,4.0,21,0.00,,,0.00,0,Wunderground v.1.15,2013-11-14 21:50:00,
2013-11-14 16:51:00,50.0,12.6,30.26,SE,131,4.0,4.0,22,0.00,,,0.00,0,Wunderground v.1.15,2013-11-14 21:51:00,
2013-11-14 16:52:00,50.0,11.5,30.26,SE,140,4.0,4.0,21,0.00,,,0.00,0,Wunderground v.1.15,2013-11-14 21:52:00,
2013-11-14 16:54:00,49.9,11.4,30.26,SE,129,3.0,4.0,21,0.00,,,0.00,0,Wunderground v.1.15,2013-11-14 21:54:00,
2013-11-14 16:56:00,49.8,11.4,30.26,NW,314,3.0,4.0,21,0.00,,,0.00,0,Wunderground v.1.15,2013-11-14 21:56:00,
2013-11-14 16:58:00,49.7,12.3,30.26,NW,306,3.0,4.0,22,0.00,,,0.00,0,Wunderground v.1.15,2013-11-14 21:58:00,
2013-11-14 17:01:00,49.5,12.2,30.26,WSW,257,3.0,3.0,22,0.00,,,0.00,0,Wunderground v.1.15,2013-11-14 22:01:00,
2013-11-14 17:03:00,49.4,12.1,30.26,WSW,241,3.0,4.0,22,0.00,,,0.00,0,Wunderground v.1.15,2013-11-14 22:03:00,
2013-11-14 17:04:00,49.3,12.0,30.26,South,171,3.0,4.0,22,0.00,,,0.00,0,Wunderground v.1.15,2013-11-14 22:04:00,
2013-11-14 17:06:00,49.2,11.9,30.26,SE,126,2.0,4.0,22,0.00,,,0.00,0,Wunderground v.1.15,2013-11-14 22:06:00,
2013-11-14 17:11:00,49.0,11.7,30.26,NE,51,2.0,3.0,22,0.00,,,0.00,0,Wunderground v.1.15,2013-11-14 22:11:00,
2013-11-14 17:12:00,49.0,11.7,30.26,WNW,284,2.0,3.0,22,0.00,,,0.00,0,Wunderground v.1.15,2013-11-14 22:12:00,
2013-11-14 17:14:00,48.9,11.7,30.26,SW,216,2.0,3.0,22,0.00,,,0.00,0,Wunderground v.1.15,2013-11-14 22:14:00,
2013-11-14 17:15:00,48.9,11.7,30.26,SE,130,2.0,3.0,22,0.00,,,0.00,0,Wunderground v.1.15,2013-11-14 22:15:00,
2013-11-14 17:19:00,48.8,11.6,30.26,SE,144,2.0,5.0,22,0.00,,,0.00,0,Wunderground v.1.15,2013-11-14 22:19:00,
2013-11-14 17:20:00,48.8,11.6,30.26,SE,146,2.0,2.0,22,0.00,,,0.00,0,Wunderground v.1.15,2013-11-14 22:20:00,
2013-11-14 17:21:00,48.8,11.6,30.26,SSE,148,2.0,2.0,22,0.00,,,0.00,0,Wunderground v.1.15,2013-11-14 22:21:00,
2013-11-14 17:22:00,48.8,11.6,30.26,SE,132,2.0,2.0,22,0.00,,,0.00,0,Wunderground v.1.15,2013-11-14 22:22:00,
2013-11-14 17:23:00,48.8,11.6,30.26,ESE,122,2.0,2.0,22,0.00,,,0.00,0,Wunderground v.1.15,2013-11-14 22:23:00,
2013-11-14 17:30:00,48.6,12.4,30.26,SSW,205,1.0,1.0,23,0.00,,,0.00,0,Wunderground v.1.15,2013-11-14 22:30:00,
2013-11-14 17:31:00,48.5,12.3,30.26,SE,133,2.0,5.0,23,0.00,,,0.00,0,Wunderground v.1.15,2013-11-14 22:31:00,
2013-11-14 17:32:00,48.5,11.3,30.27,SE,136,2.0,5.0,22,0.00,,,0.00,0,Wunderground v.1.15,2013-11-14 22:32:00,
2013-11-14 17:37:00,48.4,12.2,30.27,WSW,258,2.0,5.0,23,0.00,,,0.00,0,Wunderground v.1.15,2013-11-14 22:37:00,
2013-11-14 17:38:00,48.3,12.2,30.27,SE,136,2.0,5.0,23,0.00,,,0.00,0,Wunderground v.1.15,2013-11-14 22:38:00,
2013-11-14 17:39:00,48.3,11.2,30.27,SE,132,2.0,6.0,22,0.00,,,0.00,0,Wunderground v.1.15,2013-11-14 22:39:00,
2013-11-14 17:41:00,48.4,12.2,30.27,SE,128,2.0,4.0,23,0.00,,,0.00,0,Wunderground v.1.15,2013-11-14 22:41:00,
2013-11-14 17:43:00,48.4,12.2,30.27,SE,141,3.0,4.0,23,0.00,,,0.00,0,Wunderground v.1.15,2013-11-14 22:43:00,
2013-11-14 17:47:00,48.3,12.2,30.27,ESE,119,3.0,4.0,23,0.00,,,0.00,0,Wunderground v.1.15,2013-11-14 22:47:00,
2013-11-14 17:48:00,48.3,13.1,30.27,SE,125,3.0,4.0,24,0.00,,,0.00,0,Wunderground v.1.15,2013-11-14 22:48:00,
2013-11-14 17:49:00,48.2,12.1,30.27,ESE,119,3.0,4.0,23,0.00,,,0.00,0,Wunderground v.1.15,2013-11-14 22:49:00,
2013-11-14 17:51:00,48.0,12.9,30.27,West,267,2.0,3.0,24,0.00,,,0.00,0,Wunderground v.1.15,2013-11-14 22:51:00,
2013-11-14 17:53:00,47.8,12.7,30.27,WNW,290,2.0,3.0,24,0.00,,,0.00,0,Wunderground v.1.15,2013-11-14 22:53:00,
2013-11-14 17:55:00,47.7,12.6,30.27,North,360,2.0,3.0,24,0.00,,,0.00,0,Wunderground v.1.15,2013-11-14 22:55:00,
2013-11-14 17:56:00,47.6,12.5,30.27,West,274,2.0,3.0,24,0.00,,,0.00,0,Wunderground v.1.15,2013-11-14 22:56:00,
2013-11-14 17:57:00,47.5,12.4,30.27,WNW,303,2.0,3.0,24,0.00,,,0.00,0,Wunderground v.1.15,2013-11-14 22:57:00,
2013-11-14 17:59:00,47.4,12.4,30.27,West,273,2.0,3.0,24,0.00,,,0.00,0,Wunderground v.1.15,2013-11-14 22:59:00,
2013-11-14 18:00:00,47.3,12.3,30.27,West,275,2.0,2.0,24,0.00,,,0.00,0,Wunderground v.1.15,2013-11-14 23:00:00,
2013-11-14 18:02:00,47.3,12.3,30.27,West,276,2.0,2.0,24,0.00,,,0.00,0,Wunderground v.1.15,2013-11-14 23:02:00,
2013-11-14 18:03:00,47.3,12.3,30.27,West,277,2.0,2.0,24,0.00,,,0.00,0,Wunderground v.1.15,2013-11-14 23:03:00,
2013-11-14 18:05:00,47.2,12.2,30.27,WNW,288,2.0,2.0,24,0.00,,,0.00,0,Wunderground v.1.15,2013-11-14 23:05:00,
2013-11-14 18:06:00,47.1,12.1,30.27,WNW,288,2.0,2.0,24,0.00,,,0.00,0,Wunderground v.1.15,2013-11-14 23:06:00,
2013-11-14 18:08:00,47.1,12.1,30.27,WNW,282,2.0,4.0,24,0.00,,,0.00,0,Wunderground v.1.15,2013-11-14 23:08:00,
2013-11-14 18:09:00,47.0,12.0,30.27,NW,306,2.0,4.0,24,0.00,,,0.00,0,Wunderground v.1.15,2013-11-14 23:09:00,
2013-11-14 18:11:00,47.0,12.0,30.27,West,280,2.0,2.0,24,0.00,,,0.00,0,Wunderground v.1.15,2013-11-14 23:11:00,
2013-11-14 18:15:00,47.0,12.0,30.27,WSW,257,2.0,2.0,24,0.00,,,0.00,0,Wunderground v.1.15,2013-11-14 23:15:00,
2013-11-14 18:17:00,46.9,11.9,30.27,WNW,283,2.0,2.0,24,0.00,,,0.00,0,Wunderground v.1.15,2013-11-14 23:17:00,
2013-11-14 18:18:00,46.8,11.8,30.27,West,259,1.0,2.0,24,0.00,,,0.00,0,Wunderground v.1.15,2013-11-14 23:18:00,
2013-11-14 18:20:00,46.8,11.8,30.27,WNW,297,1.0,1.0,24,0.00,,,0.00,0,Wunderground v.1.15,2013-11-14 23:20:00,
2013-11-14 18:21:00,46.8,11.8,30.27,WNW,296,1.0,1.0,24,0.00,,,0.00,0,Wunderground v.1.15,2013-11-14 23:21:00,
2013-11-14 18:23:00,46.7,11.8,30.27,South,186,1.0,2.0,24,0.00,,,0.00,0,Wunderground v.1.15,2013-11-14 23:23:00,
2013-11-14 18:24:00,46.7,11.8,30.27,South,188,1.0,2.0,24,0.00,,,0.00,0,Wunderground v.1.15,2013-11-14 23:24:00,
2013-11-14 18:25:00,46.7,11.8,30.27,NW,323,1.0,2.0,24,0.00,,,0.00,0,Wunderground v.1.15,2013-11-14 23:25:00,
2013-11-14 18:27:00,46.6,11.7,30.27,NW,305,1.0,2.0,24,0.00,,,0.00,0,Wunderground v.1.15,2013-11-14 23:27:00,
2013-11-14 18:28:00,46.5,11.6,30.27,NW,305,1.0,2.0,24,0.00,,,0.00,0,Wunderground v.1.15,2013-11-14 23:28:00,
2013-11-14 18:30:00,46.4,12.4,30.27,WNW,295,1.0,1.0,25,0.00,,,0.00,0,Wunderground v.1.15,2013-11-14 23:30:00,
2013-11-14 18:32:00,46.3,12.3,30.27,WNW,294,1.0,1.0,25,0.00,,,0.00,0,Wunderground v.1.15,2013-11-14 23:32:00,
2013-11-14 18:33:00,46.3,12.3,30.27,WNW,294,1.0,1.0,25,0.00,,,0.00,0,Wunderground v.1.15,2013-11-14 23:33:00,
2013-11-14 18:35:00,46.2,13.1,30.27,WSW,240,1.0,2.0,26,0.00,,,0.00,0,Wunderground v.1.15,2013-11-14 23:35:00,
2013-11-14 18:36:00,46.1,12.2,30.27,WSW,237,1.0,2.0,25,0.00,,,0.00,0,Wunderground v.1.15,2013-11-14 23:36:00,
2013-11-14 18:38:00,46.0,13.0,30.27,South,173,1.0,2.0,26,0.00,,,0.00,0,Wunderground v.1.15,2013-11-14 23:38:00,
2013-11-14 18:39:00,45.9,13.7,30.27,SE,138,0.0,2.0,27,0.00,,,0.00,0,Wunderground v.1.15,2013-11-14 23:39:00,
2013-11-14 18:40:00,45.8,13.7,30.27,SE,133,1.0,2.0,27,0.00,,,0.00,0,Wunderground v.1.15,2013-11-14 23:40:00,
2013-11-14 18:43:00,45.6,12.6,30.27,SE,129,1.0,2.0,26,0.00,,,0.00,0,Wunderground v.1.15,2013-11-14 23:43:00,
2013-11-14 18:44:00,45.5,12.5,30.27,SE,129,1.0,2.0,26,0.00,,,0.00,0,Wunderground v.1.15,2013-11-14 23:44:00,
2013-11-14 18:46:00,45.4,12.5,30.27,SW,225,1.0,2.0,26,0.00,,,0.00,0,Wunderground v.1.15,2013-11-14 23:46:00,
2013-11-14 18:47:00,45.3,12.4,30.27,WSW,253,1.0,2.0,26,0.00,,,0.00,0,Wunderground v.1.15,2013-11-14 23:47:00,
2013-11-14 18:48:00,45.2,12.3,30.27,WSW,257,1.0,2.0,26,0.00,,,0.00,0,Wunderground v.1.15,2013-11-14 23:48:00,
2013-11-14 18:49:00,45.2,12.3,30.27,WSW,257,1.0,2.0,26,0.00,,,0.00,0,Wunderground v.1.15,2013-11-14 23:49:00,
2013-11-14 18:52:00,45.1,12.2,30.27,West,268,1.0,2.0,26,0.00,,,0.00,0,Wunderground v.1.15,2013-11-14 23:52:00,
2013-11-14 18:54:00,45.0,12.1,30.27,West,268,1.0,2.0,26,0.00,,,0.00,0,Wunderground v.1.15,2013-11-14 23:54:00,
2013-11-14 18:56:00,45.0,12.1,30.27,West,271,1.0,2.0,26,0.00,,,0.00,0,Wunderground v.1.15,2013-11-14 23:56:00,
2013-11-14 18:58:00,44.9,12.0,30.27,West,275,1.0,2.0,26,0.00,,,0.00,0,Wunderground v.1.15,2013-11-14 23:58:00,
2013-11-14 19:01:00,45.0,12.1,30.27,West,275,1.0,2.0,26,0.00,,,0.00,0,Wunderground v.1.15,2013-11-15 00:01:00,
2013-11-14 19:05:00,45.1,12.2,30.27,West,279,2.0,2.0,26,0.00,,,0.00,0,Wunderground v.1.15,2013-11-15 00:05:00,
2013-11-14 19:07:00,45.1,13.1,30.27,West,273,1.0,2.0,27,0.00,,,0.00,0,Wunderground v.1.15,2013-11-15 00:07:00,
2013-11-14 19:10:00,45.3,12.4,30.27,West,273,2.0,2.0,26,0.00,,,0.00,0,Wunderground v.1.15,2013-11-15 00:10:00,
2013-11-14 19:12:00,45.3,12.4,30.27,NW,305,2.0,2.0,26,0.00,,,0.00,0,Wunderground v.1.15,2013-11-15 00:12:00,
2013-11-14 19:13:00,45.3,13.2,30.27,NE,47,1.0,2.0,27,0.00,,,0.00,0,Wunderground v.1.15,2013-11-15 00:13:00,
2013-11-14 19:16:00,45.4,13.3,30.27,SE,146,1.0,2.0,27,0.00,,,0.00,0,Wunderground v.1.15,2013-11-15 00:16:00,
2013-11-14 19:18:00,45.5,12.5,30.27,WSW,240,1.0,2.0,26,0.00,,,0.00,0,Wunderground v.1.15,2013-11-15 00:18:00,
2013-11-14 19:19:00,45.5,12.5,30.27,West,271,1.0,2.0,26,0.00,,,0.00,0,Wunderground v.1.15,2013-11-15 00:19:00,
2013-11-14 19:20:00,45.5,13.4,30.27,West,274,1.0,1.0,27,0.00,,,0.00,0,Wunderground v.1.15,2013-11-15 00:20:00,
2013-11-14 19:22:00,45.6,13.5,30.27,West,267,2.0,2.0,27,0.00,,,0.00,0,Wunderground v.1.15,2013-11-15 00:22:00,
2013-11-14 19:25:00,45.5,13.4,30.27,West,275,2.0,2.0,27,0.00,,,0.00,0,Wunderground v.1.15,2013-11-15 00:25:00,
2013-11-14 19:28:00,45.5,13.4,30.27,West,278,2.0,2.0,27,0.00,,,0.00,0,Wunderground v.1.15,2013-11-15 00:28:00,
2013-11-14 19:29:00,45.5,13.4,30.27,WNW,300,1.0,2.0,27,0.00,,,0.00,0,Wunderground v.1.15,2013-11-15 00:29:00,
2013-11-14 19:30:00,45.5,13.4,30.27,WNW,286,1.0,2.0,27,0.00,,,0.00,0,Wunderground v.1.15,2013-11-15 00:30:00,
2013-11-14 19:32:00,45.4,13.3,30.27,West,269,2.0,2.0,27,0.00,,,0.00,0,Wunderground v.1.15,2013-11-15 00:32:00,
2013-11-14 19:35:00,45.4,13.3,30.27,West,273,2.0,3.0,27,0.00,,,0.00,0,Wunderground v.1.15,2013-11-15 00:35:00,
2013-11-14 19:36:00,45.4,13.3,30.27,West,269,2.0,3.0,27,0.00,,,0.00,0,Wunderground v.1.15,2013-11-15 00:36:00,
2013-11-14 19:38:00,45.4,14.1,30.27,West,275,2.0,3.0,28,0.00,,,0.00,0,Wunderground v.1.15,2013-11-15 00:38:00,
2013-11-14 19:39:00,45.4,14.1,30.27,West,269,2.0,3.0,28,0.00,,,0.00,0,Wunderground v.1.15,2013-11-15 00:39:00,
2013-11-14 19:40:00,45.4,14.1,30.27,West,281,2.0,2.0,28,0.00,,,0.00,0,Wunderground v.1.15,2013-11-15 00:40:00,
2013-11-14 19:42:00,45.4,14.1,30.27,WNW,284,2.0,2.0,28,0.00,,,0.00,0,Wunderground v.1.15,2013-11-15 00:42:00,
2013-11-14 19:44:00,45.4,14.1,30.27,WNW,286,2.0,3.0,28,0.00,,,0.00,0,Wunderground v.1.15,2013-11-15 00:44:00,
2013-11-14 19:46:00,45.4,14.1,30.27,West,272,2.0,3.0,28,0.00,,,0.00,0,Wunderground v.1.15,2013-11-15 00:46:00,
2013-11-14 19:49:00,45.2,14.0,30.27,WNW,286,2.0,3.0,28,0.00,,,0.00,0,Wunderground v.1.15,2013-11-15 00:49:00,
2013-11-14 19:52:00,45.0,13.8,30.27,WNW,292,1.0,1.0,28,0.00,,,0.00,0,Wunderground v.1.15,2013-11-15 00:52:00,
2013-11-14 19:55:00,44.7,13.5,30.27,NW,304,1.0,2.0,28,0.00,,,0.00,0,Wunderground v.1.15,2013-11-15 00:55:00,
2013-11-14 19:57:00,44.5,14.2,30.26,NW,311,1.0,2.0,29,0.00,,,0.00,0,Wunderground v.1.15,2013-11-15 00:57:00,
2013-11-14 19:59:00,44.3,14.0,30.27,NW,313,1.0,2.0,29,0.00,,,0.00,0,Wunderground v.1.15,2013-11-15 00:59:00,
2013-11-14 20:02:00,44.1,14.6,30.27,West,267,1.0,2.0,30,0.00,,,0.00,0,Wunderground v.1.15,2013-11-15 01:02:00,
2013-11-14 20:03:00,44.1,14.6,30.27,West,267,1.0,2.0,30,0.00,,,0.00,0,Wunderground v.1.15,2013-11-15 01:03:00,
2013-11-14 20:04:00,44.1,14.6,30.27,WNW,284,1.0,2.0,30,0.00,,,0.00,0,Wunderground v.1.15,2013-11-15 01:04:00,
2013-11-14 20:07:00,44.1,15.3,30.27,NW,314,1.0,2.0,31,0.00,,,0.00,0,Wunderground v.1.15,2013-11-15 01:07:00,
2013-11-14 20:08:00,44.1,14.6,30.27,WNW,290,1.0,2.0,30,0.00,,,0.00,0,Wunderground v.1.15,2013-11-15 01:08:00,
2013-11-14 20:10:00,44.2,15.4,30.27,WNW,298,1.0,3.0,31,0.00,,,0.00,0,Wunderground v.1.15,2013-11-15 01:10:00,
2013-11-14 20:11:00,44.2,14.7,30.27,West,267,1.0,3.0,30,0.00,,,0.00,0,Wunderground v.1.15,2013-11-15 01:11:00,
2013-11-14 20:16:00,44.6,15.0,30.27,WNW,283,2.0,3.0,30,0.00,,,0.00,0,Wunderground v.1.15,2013-11-15 01:16:00,
2013-11-14 20:17:00,44.5,14.9,30.26,WNW,294,2.0,3.0,30,0.00,,,0.00,0,Wunderground v.1.15,2013-11-15 01:17:00,
2013-11-14 20:18:00,44.5,14.9,30.26,WNW,294,2.0,3.0,30,0.00,,,0.00,0,Wunderground v.1.15,2013-11-15 01:18:00,
2013-11-14 20:19:00,44.5,14.9,30.26,WNW,294,2.0,3.0,30,0.00,,,0.00,0,Wunderground v.1.15,2013-11-15 01:19:00,
2013-11-14 20:21:00,44.3,14.8,30.27,WNW,294,1.0,1.0,30,0.00,,,0.00,0,Wunderground v.1.15,2013-11-15 01:21:00,
2013-11-14 20:23:00,44.2,14.7,30.27,WNW,294,1.0,1.0,30,0.00,,,0.00,0,Wunderground v.1.15,2013-11-15 01:23:00,
2013-11-14 20:24:00,44.1,15.3,30.27,WNW,294,1.0,1.0,31,0.00,,,0.00,0,Wunderground v.1.15,2013-11-15 01:24:00,
2013-11-14 20:27:00,43.8,15.1,30.27,WNW,294,0.0,2.0,31,0.00,,,0.00,0,Wunderground v.1.15,2013-11-15 01:27:00,
2013-11-14 20:30:00,43.4,14.7,30.27,WNW,294,1.0,1.0,31,0.00,,,0.00,0,Wunderground v.1.15,2013-11-15 01:30:00,
2013-11-14 20:32:00,43.3,14.6,30.27,WNW,294,1.0,1.0,31,0.00,,,0.00,0,Wunderground v.1.15,2013-11-15 01:32:00,
2013-11-14 20:33:00,43.2,14.6,30.27,WNW,294,0.0,1.0,31,0.00,,,0.00,0,Wunderground v.1.15,2013-11-15 01:33:00,
2013-11-14 20:35:00,43.1,14.5,30.27,WNW,294,0.0,1.0,31,0.00,,,0.00,0,Wunderground v.1.15,2013-11-15 01:35:00,
2013-11-14 20:37:00,43.0,15.1,30.27,WNW,294,0.0,1.0,32,0.00,,,0.00,0,Wunderground v.1.15,2013-11-15 01:37:00,
2013-11-14 20:39:00,42.8,16.3,30.27,WNW,294,0.0,1.0,34,0.00,,,0.00,0,Wunderground v.1.15,2013-11-15 01:39:00,
2013-11-14 20:40:00,42.7,16.9,30.27,WNW,294,0.0,0.0,35,0.00,,,0.00,0,Wunderground v.1.15,2013-11-15 01:40:00,
2013-11-14 20:42:00,42.5,15.4,30.27,WNW,294,0.0,0.0,33,0.00,,,0.00,0,Wunderground v.1.15,2013-11-15 01:42:00,
2013-11-14 20:45:00,42.2,15.1,30.27,WNW,294,0.0,1.0,33,0.00,,,0.00,0,Wunderground v.1.15,2013-11-15 01:45:00,
2013-11-14 20:46:00,42.2,15.1,30.27,WNW,294,0.0,1.0,33,0.00,,,0.00,0,Wunderground v.1.15,2013-11-15 01:46:00,
2013-11-14 20:47:00,42.1,15.0,30.27,WNW,294,0.0,1.0,33,0.00,,,0.00,0,Wunderground v.1.15,2013-11-15 01:47:00,
2013-11-14 20:48:00,42.0,14.9,30.27,WNW,294,0.0,1.0,33,0.00,,,0.00,0,Wunderground v.1.15,2013-11-15 01:48:00,
2013-11-14 20:50:00,41.9,14.8,30.27,WNW,294,0.0,0.0,33,0.00,,,0.00,0,Wunderground v.1.15,2013-11-15 01:50:00,
2013-11-14 20:52:00,41.8,14.8,30.27,WNW,294,0.0,0.0,33,0.00,,,0.00,0,Wunderground v.1.15,2013-11-15 01:52:00,
2013-11-14 20:54:00,41.8,14.8,30.27,WNW,294,0.0,0.0,33,0.00,,,0.00,0,Wunderground v.1.15,2013-11-15 01:54:00,
2013-11-14 20:57:00,41.5,17.1,30.27,WNW,294,0.0,0.0,37,0.00,,,0.00,0,Wunderground v.1.15,2013-11-15 01:57:00,
2013-11-14 21:00:00,41.2,17.5,30.27,WNW,294,0.0,0.0,38,0.00,,,0.00,0,Wunderground v.1.15,2013-11-15 02:00:00,
2013-11-14 21:03:00,40.8,17.1,30.27,West,265,0.0,1.0,38,0.00,,,0.00,0,Wunderground v.1.15,2013-11-15 02:03:00,
2013-11-14 21:06:00,40.3,17.3,30.27,West,265,0.0,1.0,39,0.00,,,0.00,0,Wunderground v.1.15,2013-11-15 02:06:00,
2013-11-14 21:07:00,40.2,17.2,30.27,West,265,0.0,1.0,39,0.00,,,0.00,0,Wunderground v.1.15,2013-11-15 02:07:00,
2013-11-14 21:09:00,39.9,17.5,30.27,West,265,0.0,1.0,40,0.00,,,0.00,0,Wunderground v.1.15,2013-11-15 02:09:00,
2013-11-14 21:12:00,39.6,17.2,30.27,SW,223,0.0,0.0,40,0.00,,,0.00,0,Wunderground v.1.15,2013-11-15 02:12:00,
2013-11-14 21:13:00,39.5,17.1,30.27,SW,223,0.0,1.0,40,0.00,,,0.00,0,Wunderground v.1.15,2013-11-15 02:13:00,
2013-11-14 21:14:00,39.3,17.0,30.27,SW,223,0.0,1.0,40,0.00,,,0.00,0,Wunderground v.1.15,2013-11-15 02:14:00,
2013-11-14 21:15:00,39.2,17.4,30.27,SW,223,0.0,1.0,41,0.00,,,0.00,0,Wunderground v.1.15,2013-11-15 02:15:00,
2013-11-14 21:19:00,38.8,18.2,30.27,SW,223,1.0,1.0,43,0.00,,,0.00,0,Wunderground v.1.15,2013-11-15 02:19:00,
2013-11-14 21:20:00,38.6,18.0,30.27,SW,223,1.0,1.0,43,0.00,,,0.00,0,Wunderground v.1.15,2013-11-15 02:20:00,
2013-11-14 21:23:00,38.4,17.8,30.27,SW,223,1.0,1.0,43,0.00,,,0.00,0,Wunderground v.1.15,2013-11-15 02:23:00,
2013-11-14 21:24:00,38.3,17.7,30.27,SW,223,0.0,1.0,43,0.00,,,0.00,0,Wunderground v.1.15,2013-11-15 02:24:00,
2013-11-14 21:27:00,38.2,18.2,30.27,SW,227,0.0,1.0,44,0.00,,,0.00,0,Wunderground v.1.15,2013-11-15 02:27:00,
2013-11-14 21:29:00,38.1,18.1,30.27,SW,227,0.0,1.0,44,0.00,,,0.00,0,Wunderground v.1.15,2013-11-15 02:29:00,
2013-11-14 21:30:00,38.0,18.0,30.27,SW,227,0.0,0.0,44,0.00,,,0.00,0,Wunderground v.1.15,2013-11-15 02:30:00,
2013-11-14 21:32:00,37.9,17.9,30.27,SW,229,0.0,0.0,44,0.00,,,0.00,0,Wunderground v.1.15,2013-11-15 02:32:00,
2013-11-14 21:33:00,37.8,17.8,30.27,SW,229,0.0,0.0,44,0.00,,,0.00,0,Wunderground v.1.15,2013-11-15 02:33:00,
2013-11-14 21:35:00,37.7,17.7,30.27,SW,229,0.0,0.0,44,0.00,,,0.00,0,Wunderground v.1.15,2013-11-15 02:35:00,
2013-11-14 21:39:00,37.5,18.1,30.27,SW,229,0.0,0.0,45,0.00,,,0.00,0,Wunderground v.1.15,2013-11-15 02:39:00,
2013-11-14 21:41:00,37.4,18.0,30.27,SW,229,0.0,0.0,45,0.00,,,0.00,0,Wunderground v.1.15,2013-11-15 02:41:00,
2013-11-14 21:42:00,37.4,18.0,30.27,SW,229,0.0,0.0,45,0.00,,,0.00,0,Wunderground v.1.15,2013-11-15 02:42:00,
2013-11-14 21:43:00,37.4,17.4,30.27,SW,229,0.0,0.0,44,0.00,,,0.00,0,Wunderground v.1.15,2013-11-15 02:43:00,
2013-11-14 21:46:00,37.4,16.9,30.27,SW,229,0.0,0.0,43,0.00,,,0.00,0,Wunderground v.1.15,2013-11-15 02:46:00,
2013-11-14 21:47:00,37.4,18.0,30.27,SW,229,0.0,0.0,45,0.00,,,0.00,0,Wunderground v.1.15,2013-11-15 02:47:00,
2013-11-14 21:53:00,37.2,18.3,30.27,SW,229,0.0,0.0,46,0.00,,,0.00,0,Wunderground v.1.15,2013-11-15 02:53:00,
2013-11-14 21:54:00,37.2,18.3,30.27,SW,229,0.0,0.0,46,0.00,,,0.00,0,Wunderground v.1.15,2013-11-15 02:54:00,
2013-11-14 21:55:00,37.1,18.2,30.27,SW,229,0.0,0.0,46,0.00,,,0.00,0,Wunderground v.1.15,2013-11-15 02:55:00,
2013-11-14 21:58:00,36.9,18.5,30.27,SW,229,0.0,0.0,47,0.00,,,0.00,0,Wunderground v.1.15,2013-11-15 02:58:00,
2013-11-14 22:01:00,36.7,18.8,30.27,SW,229,0.0,0.0,48,0.00,,,0.00,0,Wunderground v.1.15,2013-11-15 03:01:00,
2013-11-14 22:02:00,36.7,18.3,30.27,SW,229,0.0,0.0,47,0.00,,,0.00,0,Wunderground v.1.15,2013-11-15 03:02:00,
2013-11-14 22:04:00,36.6,17.7,30.27,SW,229,0.0,0.0,46,0.00,,,0.00,0,Wunderground v.1.15,2013-11-15 03:04:00,
2013-11-14 22:05:00,36.6,17.7,30.27,SW,229,0.0,0.0,46,0.00,,,0.00,0,Wunderground v.1.15,2013-11-15 03:05:00,
2013-11-14 22:08:00,36.5,17.1,30.27,SW,229,0.0,0.0,45,0.00,,,0.00,0,Wunderground v.1.15,2013-11-15 03:08:00,
2013-11-14 22:10:00,36.4,17.6,30.27,SW,229,0.0,0.0,46,0.00,,,0.00,0,Wunderground v.1.15,2013-11-15 03:10:00,
2013-11-14 22:12:00,36.4,17.6,30.27,SW,229,0.0,0.0,46,0.00,,,0.00,0,Wunderground v.1.15,2013-11-15 03:12:00,
2013-11-14 22:13:00,36.4,17.6,30.27,SW,229,0.0,0.0,46,0.00,,,0.00,0,Wunderground v.1.15,2013-11-15 03:13:00,
2013-11-14 22:14:00,36.5,17.1,30.27,SW,229,0.0,0.0,45,0.00,,,0.00,0,Wunderground v.1.15,2013-11-15 03:14:00,
2013-11-14 22:16:00,36.5,17.1,30.27,SW,229,0.0,0.0,45,0.00,,,0.00,0,Wunderground v.1.15,2013-11-15 03:16:00,
2013-11-14 22:17:00,36.4,17.6,30.27,SW,229,0.0,0.0,46,0.00,,,0.00,0,Wunderground v.1.15,2013-11-15 03:17:00,
2013-11-14 22:20:00,36.5,19.1,30.27,SW,215,0.0,0.0,49,0.00,,,0.00,0,Wunderground v.1.15,2013-11-15 03:20:00,
2013-11-14 22:22:00,36.4,19.0,30.27,South,187,0.0,0.0,49,0.00,,,0.00,0,Wunderground v.1.15,2013-11-15 03:22:00,
2013-11-14 22:23:00,36.3,19.4,30.27,South,187,0.0,0.0,50,0.00,,,0.00,0,Wunderground v.1.15,2013-11-15 03:23:00,
2013-11-14 22:24:00,36.3,19.4,30.27,South,187,0.0,0.0,50,0.00,,,0.00,0,Wunderground v.1.15,2013-11-15 03:24:00,
2013-11-14 22:26:00,36.2,19.8,30.27,South,187,0.0,0.0,51,0.00,,,0.00,0,Wunderground v.1.15,2013-11-15 03:26:00,
2013-11-14 22:28:00,36.1,19.7,30.27,South,187,0.0,0.0,51,0.00,,,0.00,0,Wunderground v.1.15,2013-11-15 03:28:00,
2013-11-14 22:29:00,36.1,19.7,30.27,South,187,0.0,0.0,51,0.00,,,0.00,0,Wunderground v.1.15,2013-11-15 03:29:00,
2013-11-14 22:33:00,35.9,19.5,30.27,South,187,0.0,0.0,51,0.00,,,0.00,0,Wunderground v.1.15,2013-11-15 03:33:00,
2013-11-14 22:34:00,35.9,19.5,30.27,South,187,0.0,0.0,51,0.00,,,0.00,0,Wunderground v.1.15,2013-11-15 03:34:00,
2013-11-14 22:35:00,35.8,19.4,30.27,South,187,0.0,0.0,51,0.00,,,0.00,0,Wunderground v.1.15,2013-11-15 03:35:00,
2013-11-14 22:37:00,35.8,19.4,30.27,South,187,0.0,0.0,51,0.00,,,0.00,0,Wunderground v.1.15,2013-11-15 03:37:00,
2013-11-14 22:39:00,35.7,19.3,30.27,South,187,0.0,0.0,51,0.00,,,0.00,0,Wunderground v.1.15,2013-11-15 03:39:00,
2013-11-14 22:40:00,35.7,19.3,30.27,South,187,0.0,0.0,51,0.00,,,0.00,0,Wunderground v.1.15,2013-11-15 03:40:00,
2013-11-14 22:42:00,35.7,18.9,30.27,South,187,0.0,0.0,50,0.00,,,0.00,0,Wunderground v.1.15,2013-11-15 03:42:00,
2013-11-14 22:45:00,35.5,19.1,30.27,South,187,0.0,0.0,51,0.00,,,0.00,0,Wunderground v.1.15,2013-11-15 03:45:00,
2013-11-14 22:46:00,35.5,19.6,30.27,South,187,0.0,0.0,52,0.00,,,0.00,0,Wunderground v.1.15,2013-11-15 03:46:00,
2013-11-14 22:48:00,35.5,19.6,30.27,South,187,0.0,0.0,52,0.00,,,0.00,0,Wunderground v.1.15,2013-11-15 03:48:00,
2013-11-14 22:49:00,35.4,19.5,30.27,South,187,0.0,0.0,52,0.00,,,0.00,0,Wunderground v.1.15,2013-11-15 03:49:00,
2013-11-14 22:52:00,35.3,19.9,30.27,South,187,0.0,0.0,53,0.00,,,0.00,0,Wunderground v.1.15,2013-11-15 03:52:00,
2013-11-14 22:53:00,35.3,19.9,30.27,South,187,0.0,0.0,53,0.00,,,0.00,0,Wunderground v.1.15,2013-11-15 03:53:00,
2013-11-14 22:54:00,35.3,19.9,30.27,South,187,0.0,0.0,53,0.00,,,0.00,0,Wunderground v.1.15,2013-11-15 03:54:00,
2013-11-14 22:55:00,35.3,19.9,30.27,South,187,0.0,0.0,53,0.00,,,0.00,0,Wunderground v.1.15,2013-11-15 03:55:00,
2013-11-14 22:57:00,35.2,19.8,30.27,South,187,0.0,0.0,53,0.00,,,0.00,0,Wunderground v.1.15,2013-11-15 03:57:00,
2013-11-14 23:00:00,35.1,19.7,30.27,South,187,0.0,0.0,53,0.00,,,0.00,0,Wunderground v.1.15,2013-11-15 04:00:00,
2013-11-14 23:01:00,35.1,19.7,30.27,South,187,0.0,1.0,53,0.00,,,0.00,0,Wunderground v.1.15,2013-11-15 04:01:00,
2013-11-14 23:03:00,35.1,19.7,30.27,South,187,0.0,1.0,53,0.00,,,0.00,0,Wunderground v.1.15,2013-11-15 04:03:00,
2013-11-14 23:05:00,35.0,19.6,30.27,South,187,0.0,1.0,53,0.00,,,0.00,0,Wunderground v.1.15,2013-11-15 04:05:00,
2013-11-14 23:08:00,35.0,19.6,30.27,South,187,0.0,1.0,53,0.00,,,0.00,0,Wunderground v.1.15,2013-11-15 04:08:00,
2013-11-14 23:09:00,35.0,19.1,30.27,South,177,0.0,1.0,52,0.00,,,0.00,0,Wunderground v.1.15,2013-11-15 04:09:00,
2013-11-14 23:10:00,35.0,19.1,30.27,South,177,0.0,1.0,52,0.00,,,0.00,0,Wunderground v.1.15,2013-11-15 04:10:00,
2013-11-14 23:14:00,35.0,19.1,30.27,South,177,0.0,1.0,52,0.00,,,0.00,0,Wunderground v.1.15,2013-11-15 04:14:00,
2013-11-14 23:15:00,35.0,19.1,30.27,South,177,0.0,1.0,52,0.00,,,0.00,0,Wunderground v.1.15,2013-11-15 04:15:00,
2013-11-14 23:16:00,35.0,18.7,30.27,South,177,0.0,1.0,51,0.00,,,0.00,0,Wunderground v.1.15,2013-11-15 04:16:00,
2013-11-14 23:17:00,35.0,18.7,30.27,South,177,0.0,1.0,51,0.00,,,0.00,0,Wunderground v.1.15,2013-11-15 04:17:00,
2013-11-14 23:22:00,34.8,20.3,30.27,South,169,1.0,2.0,55,0.00,,,0.00,0,Wunderground v.1.15,2013-11-15 04:22:00,
2013-11-14 23:23:00,34.7,20.6,30.27,South,169,1.0,2.0,56,0.00,,,0.00,0,Wunderground v.1.15,2013-11-15 04:23:00,
2013-11-14 23:24:00,34.6,20.5,30.27,South,169,1.0,2.0,56,0.00,,,0.00,0,Wunderground v.1.15,2013-11-15 04:24:00,
2013-11-14 23:25:00,34.4,20.3,30.27,South,169,1.0,2.0,56,0.00,,,0.00,0,Wunderground v.1.15,2013-11-15 04:25:00,
2013-11-14 23:27:00,34.2,20.5,30.27,South,169,1.0,2.0,57,0.00,,,0.00,0,Wunderground v.1.15,2013-11-15 04:27:00,
2013-11-14 23:29:00,33.8,20.6,30.27,South,175,1.0,2.0,58,0.00,,,0.00,0,Wunderground v.1.15,2013-11-15 04:29:00,
2013-11-14 23:31:00,33.6,20.8,30.27,South,175,0.0,0.0,59,0.00,,,0.00,0,Wunderground v.1.15,2013-11-15 04:31:00,
2013-11-14 23:32:00,33.5,21.1,30.27,South,175,0.0,0.0,60,0.00,,,0.00,0,Wunderground v.1.15,2013-11-15 04:32:00,
2013-11-14 23:33:00,33.4,21.0,30.27,South,175,0.0,1.0,60,0.00,,,0.00,0,Wunderground v.1.15,2013-11-15 04:33:00,
2013-11-14 23:36:00,33.2,20.4,30.27,West,264,0.0,1.0,59,0.00,,,0.00,0,Wunderground v.1.15,2013-11-15 04:36:00,
2013-11-14 23:37:00,33.2,20.0,30.27,West,264,0.0,1.0,58,0.00,,,0.00,0,Wunderground v.1.15,2013-11-15 04:37:00,
2013-11-14 23:39:00,33.2,20.0,30.27,South,189,0.0,2.0,58,0.00,,,0.00,0,Wunderground v.1.15,2013-11-15 04:39:00,
2013-11-14 23:40:00,33.2,20.4,30.27,SSE,154,0.0,2.0,59,0.00,,,0.00,0,Wunderground v.1.15,2013-11-15 04:40:00,
2013-11-14 23:42:00,33.2,20.8,30.27,SSE,154,1.0,2.0,60,0.00,,,0.00,0,Wunderground v.1.15,2013-11-15 04:42:00,
2013-11-14 23:43:00,33.2,20.4,30.27,SSE,154,1.0,2.0,59,0.00,,,0.00,0,Wunderground v.1.15,2013-11-15 04:43:00,
2013-11-14 23:44:00,33.2,20.4,30.27,SSE,154,1.0,2.0,59,0.00,,,0.00,0,Wunderground v.1.15,2013-11-15 04:44:00,
2013-11-14 23:48:00,33.0,19.8,30.28,SSE,154,1.0,2.0,58,0.00,,,0.00,0,Wunderground v.1.15,2013-11-15 04:48:00,
2013-11-14 23:50:00,32.9,19.7,30.28,SSE,154,0.0,1.0,58,0.00,,,0.00,0,Wunderground v.1.15,2013-11-15 04:50:00,
2013-11-14 23:53:00,33.0,19.8,30.28,West,263,0.0,1.0,58,0.00,,,0.00,0,Wunderground v.1.15,2013-11-15 04:53:00,
2013-11-14 23:54:00,33.1,19.9,30.28,West,264,0.0,1.0,58,0.00,,,0.00,0,Wunderground v.1.15,2013-11-15 04:54:00,
2013-11-14 23:56:00,33.2,20.4,30.28,West,264,0.0,1.0,59,0.00,,,0.00,0,Wunderground v.1.15,2013-11-15 04:56:00,
2013-11-14 23:57:00,33.2,20.4,30.28,West,264,0.0,1.0,59,0.00,,,0.00,0,Wunderground v.1.15,2013-11-15 04:57:00,
2013-11-14 23:59:00,33.2,20.4,30.28,West,264,0.0,1.0,59,0.00,,,0.00,0,Wunderground v.1.15,2013-11-15 04:59:00,